Osage River (Missouri), Bagnell (06926000)

StateMissouriLatestUnknown (25400 cfs)
RiverOsage RiverRatingObservedEstimated
Updated2026-05-10 8:15 (1 hour ago)Flood - The river is flooding. Obstacles can be treacherous or deadly. The river should be avoided at this stage for casual trips and definitely for the inexperienced. Trips should be attempted only with protective gear and equipment.Flood(none)(none)
Discharge25400 cfs (median: 7640 cfs)High - The river is high and potentially dangerous, especially for the young and / or inexperienced. Normal stream obstacles are sometimes difficult to navigate. Extended distances can be attempted, but canoe travel may not be advisable.High(none)(none)
Height13.48 feetGood - Conditions are ideal for a canoe or kayak. Boats typically will drag on fewer than one-quarter of riffles, if at all, and portages are unnecessary or rare. Normal float lengths can be attempted without a problem.Good(none)(none)
TrendRising (rising over 24 hours)Low - River is low but can still be floated. Some riffles are okay but most come with significant dragging and might need a portage. Float lengths should be reduced to accommodate low flow, dragging, and portages.Low(none)(none)
USGSExternal icon USGS Site (External icon Duck Duck Go Maps)Poor - River is too low to float comfortably. Most or all riffles will drag or must be portaged and some obstacles (such as slick shelf rock) cause undue problems. Avoid the river at this stage for casual paddling trips.Poor(none)(none)

Trending Data

Plot Image

Trips for Osage River (Missouri), Bagnell (06926000)

DateStartEndDistanceConditionDischargeHeightFishingDetails

A total of 0 rows are displayed.

Condition Descriptions

Fishing Conditions

Fish Species

Notes

Classic Trip List

The classic River Trips application is still available for use. It is updated with the new system using a data retrofit. It is no longer maintained. The original River Trips application is no longer updated (as of 1 Dec 2016) but can be checked for errors or for the condition of the data before it was converted to the new system.

Gauge Data Table

ObservationHeightDischargeMaximum
Discharge
Minimum
Discharge
Mean
Discharge
P05P10P20P25P50
(Median)
P75P80P90P95
2026-05-10 08:15 13.48 25400 143000 (1961) 395 (1959) 15100 453 560 1030 1330 7640 18100 25200 39300 54200
2026-05-10 07:15 12.77 22900 143000 (1961) 395 (1959) 15100 453 560 1030 1330 7640 18100 25200 39300 54200
2026-05-10 06:15 13.38 25000 143000 (1961) 395 (1959) 15100 453 560 1030 1330 7640 18100 25200 39300 54200
2026-05-10 05:15 12.67 22500 143000 (1961) 395 (1959) 15100 453 560 1030 1330 7640 18100 25200 39300 54200
2026-05-10 04:15 13.41 25100 143000 (1961) 395 (1959) 15100 453 560 1030 1330 7640 18100 25200 39300 54200
2026-05-10 03:15 14.43 28900 143000 (1961) 395 (1959) 15100 453 560 1030 1330 7640 18100 25200 39300 54200
2026-05-10 02:15 15.46 32800 143000 (1961) 395 (1959) 15100 453 560 1030 1330 7640 18100 25200 39300 54200
2026-05-10 01:15 15.05 31200 143000 (1961) 395 (1959) 15100 453 560 1030 1330 7640 18100 25200 39300 54200
2026-05-10 00:15 14.84 30400 143000 (1961) 395 (1959) 15100 453 560 1030 1330 7640 18100 25200 39300 54200
2026-05-09 23:15 15.58 33300 143000 (1961) 395 (1959) 15100 453 560 1030 1330 7640 18100 25200 39300 54200
2026-05-09 22:15 15.39 32600 128000 (1961) 318 (1976) 16000 438 545 730 1180 8940 25100 28500 39600 55200
2026-05-09 21:15 15.14 31600 128000 (1961) 318 (1976) 16000 438 545 730 1180 8940 25100 28500 39600 55200
2026-05-09 20:15 14.72 30000 128000 (1961) 318 (1976) 16000 438 545 730 1180 8940 25100 28500 39600 55200
2026-05-09 19:15 13.89 26900 128000 (1961) 318 (1976) 16000 438 545 730 1180 8940 25100 28500 39600 55200
2026-05-09 18:15 12.28 21200 128000 (1961) 318 (1976) 16000 438 545 730 1180 8940 25100 28500 39600 55200
2026-05-09 17:15 11.91 20000 128000 (1961) 318 (1976) 16000 438 545 730 1180 8940 25100 28500 39600 55200
2026-05-09 16:15 12.25 21100 128000 (1961) 318 (1976) 16000 438 545 730 1180 8940 25100 28500 39600 55200
2026-05-09 15:15 12.74 22800 128000 (1961) 318 (1976) 16000 438 545 730 1180 8940 25100 28500 39600 55200
2026-05-09 14:15 13.24 24500 128000 (1961) 318 (1976) 16000 438 545 730 1180 8940 25100 28500 39600 55200
2026-05-09 13:15 12.32 21300 128000 (1961) 318 (1976) 16000 438 545 730 1180 8940 25100 28500 39600 55200
2026-05-09 12:15 12.27 21200 128000 (1961) 318 (1976) 16000 438 545 730 1180 8940 25100 28500 39600 55200
2026-05-09 11:15 11.89 19900 128000 (1961) 318 (1976) 16000 438 545 730 1180 8940 25100 28500 39600 55200
2026-05-09 10:15 12.00 20300 128000 (1961) 318 (1976) 16000 438 545 730 1180 8940 25100 28500 39600 55200
2026-05-09 09:15 12.87 23200 128000 (1961) 318 (1976) 16000 438 545 730 1180 8940 25100 28500 39600 55200
2026-05-09 08:15 12.28 21200 128000 (1961) 318 (1976) 16000 438 545 730 1180 8940 25100 28500 39600 55200
2026-05-09 07:15 13.27 24600 128000 (1961) 318 (1976) 16000 438 545 730 1180 8940 25100 28500 39600 55200
2026-05-09 06:15 14.64 29700 128000 (1961) 318 (1976) 16000 438 545 730 1180 8940 25100 28500 39600 55200
2026-05-09 05:15 14.23 28100 128000 (1961) 318 (1976) 16000 438 545 730 1180 8940 25100 28500 39600 55200
2026-05-09 04:15 13.15 24200 128000 (1961) 318 (1976) 16000 438 545 730 1180 8940 25100 28500 39600 55200
2026-05-09 03:15 13.96 27100 128000 (1961) 318 (1976) 16000 438 545 730 1180 8940 25100 28500 39600 55200
2026-05-09 02:15 14.22 28100 128000 (1961) 318 (1976) 16000 438 545 730 1180 8940 25100 28500 39600 55200
2026-05-09 01:15 15.19 31800 128000 (1961) 318 (1976) 16000 438 545 730 1180 8940 25100 28500 39600 55200
2026-05-09 00:15 16.52 36300 128000 (1961) 318 (1976) 16000 438 545 730 1180 8940 25100 28500 39600 55200
2026-05-08 23:15 16.58 36500 128000 (1961) 318 (1976) 16000 438 545 730 1180 8940 25100 28500 39600 55200
2026-05-08 22:15 16.60 36600 108000 (1961) 380 (1971) 16100 478 544 1010 1570 8890 28600 31400 37000 55200
2026-05-08 21:15 16.55 36400 108000 (1961) 380 (1971) 16100 478 544 1010 1570 8890 28600 31400 37000 55200
2026-05-08 20:15 16.51 36300 108000 (1961) 380 (1971) 16100 478 544 1010 1570 8890 28600 31400 37000 55200
2026-05-08 19:15 16.55 36400 108000 (1961) 380 (1971) 16100 478 544 1010 1570 8890 28600 31400 37000 55200
2026-05-08 18:15 16.54 36400 108000 (1961) 380 (1971) 16100 478 544 1010 1570 8890 28600 31400 37000 55200
2026-05-08 17:15 16.52 36300 108000 (1961) 380 (1971) 16100 478 544 1010 1570 8890 28600 31400 37000 55200
2026-05-08 16:15 16.52 36300 108000 (1961) 380 (1971) 16100 478 544 1010 1570 8890 28600 31400 37000 55200
2026-05-08 15:15 16.52 36300 108000 (1961) 380 (1971) 16100 478 544 1010 1570 8890 28600 31400 37000 55200
2026-05-08 14:15 16.52 36300 108000 (1961) 380 (1971) 16100 478 544 1010 1570 8890 28600 31400 37000 55200
2026-05-08 13:15 16.51 36300 108000 (1961) 380 (1971) 16100 478 544 1010 1570 8890 28600 31400 37000 55200
2026-05-08 12:15 16.50 36200 108000 (1961) 380 (1971) 16100 478 544 1010 1570 8890 28600 31400 37000 55200
2026-05-08 11:15 16.44 36000 108000 (1961) 380 (1971) 16100 478 544 1010 1570 8890 28600 31400 37000 55200
2026-05-08 10:15 16.42 36000 108000 (1961) 380 (1971) 16100 478 544 1010 1570 8890 28600 31400 37000 55200
2026-05-08 09:15 16.41 35900 108000 (1961) 380 (1971) 16100 478 544 1010 1570 8890 28600 31400 37000 55200
2026-05-08 08:15 16.40 35900 108000 (1961) 380 (1971) 16100 478 544 1010 1570 8890 28600 31400 37000 55200
2026-05-08 07:15 16.41 35900 108000 (1961) 380 (1971) 16100 478 544 1010 1570 8890 28600 31400 37000 55200
2026-05-08 06:15 16.41 35900 108000 (1961) 380 (1971) 16100 478 544 1010 1570 8890 28600 31400 37000 55200
2026-05-08 05:15 16.39 35900 108000 (1961) 380 (1971) 16100 478 544 1010 1570 8890 28600 31400 37000 55200
2026-05-08 04:15 16.30 35600 108000 (1961) 380 (1971) 16100 478 544 1010 1570 8890 28600 31400 37000 55200
2026-05-08 03:15 16.29 35600 108000 (1961) 380 (1971) 16100 478 544 1010 1570 8890 28600 31400 37000 55200
2026-05-08 02:15 16.25 35400 108000 (1961) 380 (1971) 16100 478 544 1010 1570 8890 28600 31400 37000 55200
2026-05-08 01:15 16.14 35100 108000 (1961) 380 (1971) 16100 478 544 1010 1570 8890 28600 31400 37000 55200
2026-05-08 00:15 16.21 35300 108000 (1961) 380 (1971) 16100 478 544 1010 1570 8890 28600 31400 37000 55200
2026-05-07 23:15 16.10 34900 108000 (1961) 380 (1971) 16100 478 544 1010 1570 8890 28600 31400 37000 55200
2026-05-07 22:15 15.89 34300 92400 (1961) 416 (2005) 16100 500 554 1190 1690 9660 27900 30800 36700 51000
2026-05-07 21:15 15.35 32400 92400 (1961) 416 (2005) 16100 500 554 1190 1690 9660 27900 30800 36700 51000
2026-05-07 20:15 16.40 35900 92400 (1961) 416 (2005) 16100 500 554 1190 1690 9660 27900 30800 36700 51000
2026-05-07 19:15 16.39 35900 92400 (1961) 416 (2005) 16100 500 554 1190 1690 9660 27900 30800 36700 51000
2026-05-07 18:15 16.33 35700 92400 (1961) 416 (2005) 16100 500 554 1190 1690 9660 27900 30800 36700 51000
2026-05-07 17:15 16.27 35500 92400 (1961) 416 (2005) 16100 500 554 1190 1690 9660 27900 30800 36700 51000
2026-05-07 16:15 16.16 35100 92400 (1961) 416 (2005) 16100 500 554 1190 1690 9660 27900 30800 36700 51000
2026-05-07 15:15 16.16 35100 92400 (1961) 416 (2005) 16100 500 554 1190 1690 9660 27900 30800 36700 51000
2026-05-07 14:15 16.06 34800 92400 (1961) 416 (2005) 16100 500 554 1190 1690 9660 27900 30800 36700 51000
2026-05-07 13:15 15.88 34200 92400 (1961) 416 (2005) 16100 500 554 1190 1690 9660 27900 30800 36700 51000
2026-05-07 12:15 15.55 33200 92400 (1961) 416 (2005) 16100 500 554 1190 1690 9660 27900 30800 36700 51000
2026-05-07 11:15 15.39 32600 92400 (1961) 416 (2005) 16100 500 554 1190 1690 9660 27900 30800 36700 51000
2026-05-07 10:15 16.03 34700 92400 (1961) 416 (2005) 16100 500 554 1190 1690 9660 27900 30800 36700 51000
2026-05-07 09:15 16.30 35600 92400 (1961) 416 (2005) 16100 500 554 1190 1690 9660 27900 30800 36700 51000
2026-05-07 08:15 16.37 35800 92400 (1961) 416 (2005) 16100 500 554 1190 1690 9660 27900 30800 36700 51000
2026-05-07 07:15 16.31 35600 92400 (1961) 416 (2005) 16100 500 554 1190 1690 9660 27900 30800 36700 51000
2026-05-07 06:15 16.24 35400 92400 (1961) 416 (2005) 16100 500 554 1190 1690 9660 27900 30800 36700 51000
2026-05-07 05:15 16.50 36200 92400 (1961) 416 (2005) 16100 500 554 1190 1690 9660 27900 30800 36700 51000
2026-05-07 04:15 16.49 36200 92400 (1961) 416 (2005) 16100 500 554 1190 1690 9660 27900 30800 36700 51000
2026-05-07 03:15 16.47 36100 92400 (1961) 416 (2005) 16100 500 554 1190 1690 9660 27900 30800 36700 51000
2026-05-07 02:15 16.47 36100 92400 (1961) 416 (2005) 16100 500 554 1190 1690 9660 27900 30800 36700 51000
2026-05-07 01:15 16.47 36100 92400 (1961) 416 (2005) 16100 500 554 1190 1690 9660 27900 30800 36700 51000
2026-05-07 00:15 16.49 36200 92400 (1961) 416 (2005) 16100 500 554 1190 1690 9660 27900 30800 36700 51000
2026-05-06 23:15 16.47 36100 92400 (1961) 416 (2005) 16100 500 554 1190 1690 9660 27900 30800 36700 51000
2026-05-06 22:15 16.48 36200 75800 (1944) 348 (1971) 16000 506 543 1270 2020 9500 28000 30900 36100 48500
2026-05-06 21:15 16.45 36100 75800 (1944) 348 (1971) 16000 506 543 1270 2020 9500 28000 30900 36100 48500
2026-05-06 20:15 16.49 36200 75800 (1944) 348 (1971) 16000 506 543 1270 2020 9500 28000 30900 36100 48500
2026-05-06 19:15 16.48 36200 75800 (1944) 348 (1971) 16000 506 543 1270 2020 9500 28000 30900 36100 48500
2026-05-06 18:15 16.42 36000 75800 (1944) 348 (1971) 16000 506 543 1270 2020 9500 28000 30900 36100 48500
2026-05-06 17:15 16.39 35900 75800 (1944) 348 (1971) 16000 506 543 1270 2020 9500 28000 30900 36100 48500
2026-05-06 16:15 16.42 36000 75800 (1944) 348 (1971) 16000 506 543 1270 2020 9500 28000 30900 36100 48500
2026-05-06 15:15 16.40 35900 75800 (1944) 348 (1971) 16000 506 543 1270 2020 9500 28000 30900 36100 48500
2026-05-06 14:15 16.34 35700 75800 (1944) 348 (1971) 16000 506 543 1270 2020 9500 28000 30900 36100 48500
2026-05-06 13:15 16.32 35700 75800 (1944) 348 (1971) 16000 506 543 1270 2020 9500 28000 30900 36100 48500
2026-05-06 12:15 16.38 35800 75800 (1944) 348 (1971) 16000 506 543 1270 2020 9500 28000 30900 36100 48500
2026-05-06 11:15 16.36 35800 75800 (1944) 348 (1971) 16000 506 543 1270 2020 9500 28000 30900 36100 48500
2026-05-06 10:15 16.34 35700 75800 (1944) 348 (1971) 16000 506 543 1270 2020 9500 28000 30900 36100 48500
2026-05-06 09:15 16.33 35700 75800 (1944) 348 (1971) 16000 506 543 1270 2020 9500 28000 30900 36100 48500
2026-05-06 08:15 16.31 35600 75800 (1944) 348 (1971) 16000 506 543 1270 2020 9500 28000 30900 36100 48500
2026-05-06 07:15 16.31 35600 75800 (1944) 348 (1971) 16000 506 543 1270 2020 9500 28000 30900 36100 48500
2026-05-06 06:15 16.30 35600 75800 (1944) 348 (1971) 16000 506 543 1270 2020 9500 28000 30900 36100 48500
2026-05-06 05:15 16.26 35500 75800 (1944) 348 (1971) 16000 506 543 1270 2020 9500 28000 30900 36100 48500
2026-05-06 04:15 16.21 35300 75800 (1944) 348 (1971) 16000 506 543 1270 2020 9500 28000 30900 36100 48500
2026-05-06 03:15 16.16 35100 75800 (1944) 348 (1971) 16000 506 543 1270 2020 9500 28000 30900 36100 48500
2026-05-06 02:15 16.10 34900 75800 (1944) 348 (1971) 16000 506 543 1270 2020 9500 28000 30900 36100 48500
2026-05-06 01:15 16.01 34600 75800 (1944) 348 (1971) 16000 506 543 1270 2020 9500 28000 30900 36100 48500
2026-05-06 00:15 15.91 34300 75800 (1944) 348 (1971) 16000 506 543 1270 2020 9500 28000 30900 36100 48500
2026-05-05 23:15 15.68 33600 75800 (1944) 348 (1971) 16000 506 543 1270 2020 9500 28000 30900 36100 48500
2026-05-05 22:15 15.31 32300 83800 (1944) 338 (1971) 15500 478 603 1250 1600 9160 28100 31400 37600 44500
2026-05-05 21:15 14.21 28000 83800 (1944) 338 (1971) 15500 478 603 1250 1600 9160 28100 31400 37600 44500
2026-05-05 20:15 13.26 24600 83800 (1944) 338 (1971) 15500 478 603 1250 1600 9160 28100 31400 37600 44500
2026-05-05 19:15 13.07 23900 83800 (1944) 338 (1971) 15500 478 603 1250 1600 9160 28100 31400 37600 44500
2026-05-05 18:15 15.41 32600 83800 (1944) 338 (1971) 15500 478 603 1250 1600 9160 28100 31400 37600 44500
2026-05-05 17:15 16.24 35400 83800 (1944) 338 (1971) 15500 478 603 1250 1600 9160 28100 31400 37600 44500
2026-05-05 16:15 16.33 35700 83800 (1944) 338 (1971) 15500 478 603 1250 1600 9160 28100 31400 37600 44500
2026-05-05 15:15 16.28 35500 83800 (1944) 338 (1971) 15500 478 603 1250 1600 9160 28100 31400 37600 44500
2026-05-05 14:15 16.22 35300 83800 (1944) 338 (1971) 15500 478 603 1250 1600 9160 28100 31400 37600 44500
2026-05-05 13:15 16.06 34800 83800 (1944) 338 (1971) 15500 478 603 1250 1600 9160 28100 31400 37600 44500
2026-05-05 12:15 16.37 35800 83800 (1944) 338 (1971) 15500 478 603 1250 1600 9160 28100 31400 37600 44500
2026-05-05 11:15 16.40 35900 83800 (1944) 338 (1971) 15500 478 603 1250 1600 9160 28100 31400 37600 44500
2026-05-05 10:15 16.43 36000 83800 (1944) 338 (1971) 15500 478 603 1250 1600 9160 28100 31400 37600 44500
2026-05-05 09:15 16.31 35600 83800 (1944) 338 (1971) 15500 478 603 1250 1600 9160 28100 31400 37600 44500
2026-05-05 08:15 16.38 35800 83800 (1944) 338 (1971) 15500 478 603 1250 1600 9160 28100 31400 37600 44500
2026-05-05 07:15 16.36 35800 83800 (1944) 338 (1971) 15500 478 603 1250 1600 9160 28100 31400 37600 44500
2026-05-05 06:15 16.37 35800 83800 (1944) 338 (1971) 15500 478 603 1250 1600 9160 28100 31400 37600 44500
2026-05-05 05:15 16.24 35400 83800 (1944) 338 (1971) 15500 478 603 1250 1600 9160 28100 31400 37600 44500
2026-05-05 04:15 16.23 35400 83800 (1944) 338 (1971) 15500 478 603 1250 1600 9160 28100 31400 37600 44500
2026-05-05 03:15 16.29 35600 83800 (1944) 338 (1971) 15500 478 603 1250 1600 9160 28100 31400 37600 44500
2026-05-05 02:15 16.18 35200 83800 (1944) 338 (1971) 15500 478 603 1250 1600 9160 28100 31400 37600 44500
2026-05-05 01:15 15.96 34500 83800 (1944) 338 (1971) 15500 478 603 1250 1600 9160 28100 31400 37600 44500
2026-05-05 00:15 15.03 31200 83800 (1944) 338 (1971) 15500 478 603 1250 1600 9160 28100 31400 37600 44500
2026-05-04 23:15 16.37 35800 83800 (1944) 338 (1971) 15500 478 603 1250 1600 9160 28100 31400 37600 44500
2026-05-04 22:15 16.31 35600 89400 (1944) 312 (1971) 15200 503 529 897 1260 9040 24900 31000 36600 48300
2026-05-04 21:15 16.31 35600 89400 (1944) 312 (1971) 15200 503 529 897 1260 9040 24900 31000 36600 48300
2026-05-04 20:15 16.28 35500 89400 (1944) 312 (1971) 15200 503 529 897 1260 9040 24900 31000 36600 48300
2026-05-04 19:15 16.26 35500 89400 (1944) 312 (1971) 15200 503 529 897 1260 9040 24900 31000 36600 48300
2026-05-04 18:15 16.15 35100 89400 (1944) 312 (1971) 15200 503 529 897 1260 9040 24900 31000 36600 48300
2026-05-04 17:15 16.02 34700 89400 (1944) 312 (1971) 15200 503 529 897 1260 9040 24900 31000 36600 48300
2026-05-04 16:15 16.00 34600 89400 (1944) 312 (1971) 15200 503 529 897 1260 9040 24900 31000 36600 48300
2026-05-04 15:15 15.86 34200 89400 (1944) 312 (1971) 15200 503 529 897 1260 9040 24900 31000 36600 48300
2026-05-04 14:15 15.34 32400 89400 (1944) 312 (1971) 15200 503 529 897 1260 9040 24900 31000 36600 48300
2026-05-04 13:15 15.62 33400 89400 (1944) 312 (1971) 15200 503 529 897 1260 9040 24900 31000 36600 48300
2026-05-04 12:15 15.34 32400 89400 (1944) 312 (1971) 15200 503 529 897 1260 9040 24900 31000 36600 48300
2026-05-04 11:15 14.89 30600 89400 (1944) 312 (1971) 15200 503 529 897 1260 9040 24900 31000 36600 48300
2026-05-04 10:15 14.35 28600 89400 (1944) 312 (1971) 15200 503 529 897 1260 9040 24900 31000 36600 48300
2026-05-04 09:15 13.24 24500 89400 (1944) 312 (1971) 15200 503 529 897 1260 9040 24900 31000 36600 48300
2026-05-04 08:15 12.66 22500 89400 (1944) 312 (1971) 15200 503 529 897 1260 9040 24900 31000 36600 48300
2026-05-04 07:15 12.70 22600 89400 (1944) 312 (1971) 15200 503 529 897 1260 9040 24900 31000 36600 48300
2026-05-04 06:15 12.82 23000 89400 (1944) 312 (1971) 15200 503 529 897 1260 9040 24900 31000 36600 48300
2026-05-04 05:15 11.59 18900 89400 (1944) 312 (1971) 15200 503 529 897 1260 9040 24900 31000 36600 48300
2026-05-04 04:15 10.94 16900 89400 (1944) 312 (1971) 15200 503 529 897 1260 9040 24900 31000 36600 48300
2026-05-04 03:15 10.96 16900 89400 (1944) 312 (1971) 15200 503 529 897 1260 9040 24900 31000 36600 48300
2026-05-04 02:15 10.22 14700 89400 (1944) 312 (1971) 15200 503 529 897 1260 9040 24900 31000 36600 48300
2026-05-04 01:15 11.33 18100 89400 (1944) 312 (1971) 15200 503 529 897 1260 9040 24900 31000 36600 48300
2026-05-04 00:15 10.62 15900 89400 (1944) 312 (1971) 15200 503 529 897 1260 9040 24900 31000 36600 48300
2026-05-03 23:15 11.20 17700 89400 (1944) 312 (1971) 15200 503 529 897 1260 9040 24900 31000 36600 48300
2026-05-03 22:15 12.42 21700 92600 (1944) 254 (1981) 16000 506 568 1250 2350 11500 24400 30900 37300 51000
2026-05-03 21:15 11.72 19400 92600 (1944) 254 (1981) 16000 506 568 1250 2350 11500 24400 30900 37300 51000
2026-05-03 20:15 12.85 23100 92600 (1944) 254 (1981) 16000 506 568 1250 2350 11500 24400 30900 37300 51000
2026-05-03 19:15 12.65 22500 92600 (1944) 254 (1981) 16000 506 568 1250 2350 11500 24400 30900 37300 51000
2026-05-03 18:15 11.83 19700 92600 (1944) 254 (1981) 16000 506 568 1250 2350 11500 24400 30900 37300 51000
2026-05-03 17:15 11.44 18500 92600 (1944) 254 (1981) 16000 506 568 1250 2350 11500 24400 30900 37300 51000
2026-05-03 16:15 11.08 17300 92600 (1944) 254 (1981) 16000 506 568 1250 2350 11500 24400 30900 37300 51000
2026-05-03 15:15 10.90 16800 92600 (1944) 254 (1981) 16000 506 568 1250 2350 11500 24400 30900 37300 51000
2026-05-03 14:15 10.74 16300 92600 (1944) 254 (1981) 16000 506 568 1250 2350 11500 24400 30900 37300 51000
2026-05-03 13:15 11.71 19300 92600 (1944) 254 (1981) 16000 506 568 1250 2350 11500 24400 30900 37300 51000
2026-05-03 12:15 11.54 18800 92600 (1944) 254 (1981) 16000 506 568 1250 2350 11500 24400 30900 37300 51000
2026-05-03 11:15 10.36 15100 92600 (1944) 254 (1981) 16000 506 568 1250 2350 11500 24400 30900 37300 51000
2026-05-03 10:15 10.11 14400 92600 (1944) 254 (1981) 16000 506 568 1250 2350 11500 24400 30900 37300 51000
2026-05-03 09:15 10.92 16800 92600 (1944) 254 (1981) 16000 506 568 1250 2350 11500 24400 30900 37300 51000
2026-05-03 08:15 10.51 15600 92600 (1944) 254 (1981) 16000 506 568 1250 2350 11500 24400 30900 37300 51000
2026-05-03 07:15 9.26 12000 92600 (1944) 254 (1981) 16000 506 568 1250 2350 11500 24400 30900 37300 51000
2026-05-03 06:15 9.80 13500 92600 (1944) 254 (1981) 16000 506 568 1250 2350 11500 24400 30900 37300 51000
2026-05-03 05:15 10.21 14700 92600 (1944) 254 (1981) 16000 506 568 1250 2350 11500 24400 30900 37300 51000
2026-05-03 04:15 11.30 18000 92600 (1944) 254 (1981) 16000 506 568 1250 2350 11500 24400 30900 37300 51000
2026-05-03 03:15 12.80 23000 92600 (1944) 254 (1981) 16000 506 568 1250 2350 11500 24400 30900 37300 51000
2026-05-03 02:15 12.78 22900 92600 (1944) 254 (1981) 16000 506 568 1250 2350 11500 24400 30900 37300 51000
2026-05-03 01:15 12.59 22300 92600 (1944) 254 (1981) 16000 506 568 1250 2350 11500 24400 30900 37300 51000
2026-05-03 00:15 13.63 25900 92600 (1944) 254 (1981) 16000 506 568 1250 2350 11500 24400 30900 37300 51000
2026-05-02 23:15 12.41 21600 92600 (1944) 254 (1981) 16000 506 568 1250 2350 11500 24400 30900 37300 51000
2026-05-02 22:15 11.74 19400 91900 (1970) 251 (1981) 16300 476 620 1220 2110 10800 22200 30700 45100 55800
2026-05-02 21:15 12.90 23300 91900 (1970) 251 (1981) 16300 476 620 1220 2110 10800 22200 30700 45100 55800
2026-05-02 20:15 13.22 24400 91900 (1970) 251 (1981) 16300 476 620 1220 2110 10800 22200 30700 45100 55800
2026-05-02 19:15 13.60 25800 91900 (1970) 251 (1981) 16300 476 620 1220 2110 10800 22200 30700 45100 55800
2026-05-02 18:15 11.81 19600 91900 (1970) 251 (1981) 16300 476 620 1220 2110 10800 22200 30700 45100 55800
2026-05-02 17:15 12.78 22900 91900 (1970) 251 (1981) 16300 476 620 1220 2110 10800 22200 30700 45100 55800
2026-05-02 16:15 11.39 18300 91900 (1970) 251 (1981) 16300 476 620 1220 2110 10800 22200 30700 45100 55800
2026-05-02 15:15 13.19 24300 91900 (1970) 251 (1981) 16300 476 620 1220 2110 10800 22200 30700 45100 55800
2026-05-02 14:15 12.36 21500 91900 (1970) 251 (1981) 16300 476 620 1220 2110 10800 22200 30700 45100 55800
2026-05-02 13:15 13.14 24200 91900 (1970) 251 (1981) 16300 476 620 1220 2110 10800 22200 30700 45100 55800
2026-05-02 12:15 13.70 26200 91900 (1970) 251 (1981) 16300 476 620 1220 2110 10800 22200 30700 45100 55800
2026-05-02 11:15 14.84 30400 91900 (1970) 251 (1981) 16300 476 620 1220 2110 10800 22200 30700 45100 55800
2026-05-02 10:15 15.94 34400 91900 (1970) 251 (1981) 16300 476 620 1220 2110 10800 22200 30700 45100 55800
2026-05-02 09:15 15.84 34100 91900 (1970) 251 (1981) 16300 476 620 1220 2110 10800 22200 30700 45100 55800
2026-05-02 08:15 15.87 34200 91900 (1970) 251 (1981) 16300 476 620 1220 2110 10800 22200 30700 45100 55800
2026-05-02 07:15 16.34 35700 91900 (1970) 251 (1981) 16300 476 620 1220 2110 10800 22200 30700 45100 55800
2026-05-02 06:15 16.33 35700 91900 (1970) 251 (1981) 16300 476 620 1220 2110 10800 22200 30700 45100 55800
2026-05-02 05:15 16.30 35600 91900 (1970) 251 (1981) 16300 476 620 1220 2110 10800 22200 30700 45100 55800
2026-05-02 04:15 16.20 35300 91900 (1970) 251 (1981) 16300 476 620 1220 2110 10800 22200 30700 45100 55800
2026-05-02 03:15 16.16 35100 91900 (1970) 251 (1981) 16300 476 620 1220 2110 10800 22200 30700 45100 55800
2026-05-02 02:15 16.06 34800 91900 (1970) 251 (1981) 16300 476 620 1220 2110 10800 22200 30700 45100 55800
2026-05-02 01:15 15.97 34500 91900 (1970) 251 (1981) 16300 476 620 1220 2110 10800 22200 30700 45100 55800
2026-05-02 00:15 15.84 34100 91900 (1970) 251 (1981) 16300 476 620 1220 2110 10800 22200 30700 45100 55800
2026-05-01 23:15 15.61 33400 91900 (1970) 251 (1981) 16300 476 620 1220 2110 10800 22200 30700 45100 55800
2026-05-01 22:15 15.28 32100 83600 (1970) 254 (1981) 16500 446 524 1180 2380 9400 21800 29000 45300 63300
2026-05-01 21:15 14.81 30300 83600 (1970) 254 (1981) 16500 446 524 1180 2380 9400 21800 29000 45300 63300
2026-05-01 20:15 13.99 27200 83600 (1970) 254 (1981) 16500 446 524 1180 2380 9400 21800 29000 45300 63300
2026-05-01 19:15 12.79 22900 83600 (1970) 254 (1981) 16500 446 524 1180 2380 9400 21800 29000 45300 63300
2026-05-01 18:15 11.33 18100 83600 (1970) 254 (1981) 16500 446 524 1180 2380 9400 21800 29000 45300 63300
2026-05-01 17:15 12.55 22100 83600 (1970) 254 (1981) 16500 446 524 1180 2380 9400 21800 29000 45300 63300
2026-05-01 16:15 11.54 18800 83600 (1970) 254 (1981) 16500 446 524 1180 2380 9400 21800 29000 45300 63300
2026-05-01 15:15 12.37 21500 83600 (1970) 254 (1981) 16500 446 524 1180 2380 9400 21800 29000 45300 63300
2026-05-01 14:15 11.96 20100 83600 (1970) 254 (1981) 16500 446 524 1180 2380 9400 21800 29000 45300 63300
2026-05-01 13:15 12.62 22400 83600 (1970) 254 (1981) 16500 446 524 1180 2380 9400 21800 29000 45300 63300
2026-05-01 12:15 13.36 24900 83600 (1970) 254 (1981) 16500 446 524 1180 2380 9400 21800 29000 45300 63300
2026-05-01 11:15 13.33 24800 83600 (1970) 254 (1981) 16500 446 524 1180 2380 9400 21800 29000 45300 63300
2026-05-01 10:15 13.69 26100 83600 (1970) 254 (1981) 16500 446 524 1180 2380 9400 21800 29000 45300 63300
2026-05-01 09:15 13.53 25600 83600 (1970) 254 (1981) 16500 446 524 1180 2380 9400 21800 29000 45300 63300
2026-05-01 08:15 15.27 32100 83600 (1970) 254 (1981) 16500 446 524 1180 2380 9400 21800 29000 45300 63300
2026-05-01 07:15 15.89 34300 83600 (1970) 254 (1981) 16500 446 524 1180 2380 9400 21800 29000 45300 63300
2026-05-01 06:15 15.67 33500 83600 (1970) 254 (1981) 16500 446 524 1180 2380 9400 21800 29000 45300 63300
2026-05-01 05:15 15.33 32300 83600 (1970) 254 (1981) 16500 446 524 1180 2380 9400 21800 29000 45300 63300
2026-05-01 04:15 14.70 29900 83600 (1970) 254 (1981) 16500 446 524 1180 2380 9400 21800 29000 45300 63300
2026-05-01 03:15 13.73 26300 83600 (1970) 254 (1981) 16500 446 524 1180 2380 9400 21800 29000 45300 63300
2026-05-01 02:15 13.90 26900 83600 (1970) 254 (1981) 16500 446 524 1180 2380 9400 21800 29000 45300 63300
2026-05-01 01:15 15.08 31400 83600 (1970) 254 (1981) 16500 446 524 1180 2380 9400 21800 29000 45300 63300
2026-05-01 00:15 14.27 28300 83600 (1970) 254 (1981) 16500 446 524 1180 2380 9400 21800 29000 45300 63300
2026-04-30 23:15 14.00 27300 83600 (1970) 254 (1981) 16500 446 524 1180 2380 9400 21800 29000 45300 63300
2026-04-30 22:15 14.31 28400 79900 (1947) 300 (1981) 16400 510 535 1020 2230 9930 22100 27900 48600 68600
2026-04-30 21:15 14.46 29000 79900 (1947) 300 (1981) 16400 510 535 1020 2230 9930 22100 27900 48600 68600
2026-04-30 20:15 14.17 27900 79900 (1947) 300 (1981) 16400 510 535 1020 2230 9930 22100 27900 48600 68600
2026-04-30 19:15 12.95 23500 79900 (1947) 300 (1981) 16400 510 535 1020 2230 9930 22100 27900 48600 68600
2026-04-30 18:15 12.02 20300 79900 (1947) 300 (1981) 16400 510 535 1020 2230 9930 22100 27900 48600 68600
2026-04-30 17:15 12.56 22200 79900 (1947) 300 (1981) 16400 510 535 1020 2230 9930 22100 27900 48600 68600
2026-04-30 16:15 11.57 18900 79900 (1947) 300 (1981) 16400 510 535 1020 2230 9930 22100 27900 48600 68600
2026-04-30 15:15 11.81 19600 79900 (1947) 300 (1981) 16400 510 535 1020 2230 9930 22100 27900 48600 68600
2026-04-30 14:15 11.22 17800 79900 (1947) 300 (1981) 16400 510 535 1020 2230 9930 22100 27900 48600 68600
2026-04-30 13:15 12.42 21700 79900 (1947) 300 (1981) 16400 510 535 1020 2230 9930 22100 27900 48600 68600
2026-04-30 12:15 13.21 24400 79900 (1947) 300 (1981) 16400 510 535 1020 2230 9930 22100 27900 48600 68600
2026-04-30 11:15 12.81 23000 79900 (1947) 300 (1981) 16400 510 535 1020 2230 9930 22100 27900 48600 68600
2026-04-30 10:15 12.01 20300 79900 (1947) 300 (1981) 16400 510 535 1020 2230 9930 22100 27900 48600 68600
2026-04-30 09:15 11.86 19800 79900 (1947) 300 (1981) 16400 510 535 1020 2230 9930 22100 27900 48600 68600
2026-04-30 08:15 12.57 22200 79900 (1947) 300 (1981) 16400 510 535 1020 2230 9930 22100 27900 48600 68600
2026-04-30 07:15 12.54 22100 79900 (1947) 300 (1981) 16400 510 535 1020 2230 9930 22100 27900 48600 68600
2026-04-30 06:15 13.21 24400 79900 (1947) 300 (1981) 16400 510 535 1020 2230 9930 22100 27900 48600 68600
2026-04-30 05:15 13.07 23900 79900 (1947) 300 (1981) 16400 510 535 1020 2230 9930 22100 27900 48600 68600
2026-04-30 04:15 13.08 24000 79900 (1947) 300 (1981) 16400 510 535 1020 2230 9930 22100 27900 48600 68600
2026-04-30 03:15 11.39 18300 79900 (1947) 300 (1981) 16400 510 535 1020 2230 9930 22100 27900 48600 68600
2026-04-30 02:15 12.16 20800 79900 (1947) 300 (1981) 16400 510 535 1020 2230 9930 22100 27900 48600 68600
2026-04-30 01:15 13.53 25600 79900 (1947) 300 (1981) 16400 510 535 1020 2230 9930 22100 27900 48600 68600
2026-04-30 00:15 14.30 28400 79900 (1947) 300 (1981) 16400 510 535 1020 2230 9930 22100 27900 48600 68600
2026-04-29 23:15 14.09 27600 79900 (1947) 300 (1981) 16400 510 535 1020 2230 9930 22100 27900 48600 68600
2026-04-29 22:15 14.01 27300 90300 (1947) 345 (1971) 15800 495 569 1560 2760 8120 21400 25000 42100 64400
2026-04-29 21:15 13.29 24700 90300 (1947) 345 (1971) 15800 495 569 1560 2760 8120 21400 25000 42100 64400
2026-04-29 20:15 12.40 21600 90300 (1947) 345 (1971) 15800 495 569 1560 2760 8120 21400 25000 42100 64400
2026-04-29 19:15 10.19 14600 90300 (1947) 345 (1971) 15800 495 569 1560 2760 8120 21400 25000 42100 64400
2026-04-29 18:15 8.98 11200 90300 (1947) 345 (1971) 15800 495 569 1560 2760 8120 21400 25000 42100 64400
2026-04-29 17:15 9.07 11400 90300 (1947) 345 (1971) 15800 495 569 1560 2760 8120 21400 25000 42100 64400
2026-04-29 16:15 9.06 11400 90300 (1947) 345 (1971) 15800 495 569 1560 2760 8120 21400 25000 42100 64400
2026-04-29 15:15 9.20 11800 90300 (1947) 345 (1971) 15800 495 569 1560 2760 8120 21400 25000 42100 64400
2026-04-29 14:15 8.99 11200 90300 (1947) 345 (1971) 15800 495 569 1560 2760 8120 21400 25000 42100 64400
2026-04-29 13:15 9.19 11800 90300 (1947) 345 (1971) 15800 495 569 1560 2760 8120 21400 25000 42100 64400
2026-04-29 12:15 9.57 12800 90300 (1947) 345 (1971) 15800 495 569 1560 2760 8120 21400 25000 42100 64400
2026-04-29 11:15 10.02 14100 90300 (1947) 345 (1971) 15800 495 569 1560 2760 8120 21400 25000 42100 64400
2026-04-29 10:15 10.63 15900 90300 (1947) 345 (1971) 15800 495 569 1560 2760 8120 21400 25000 42100 64400
2026-04-29 09:15 11.52 18700 90300 (1947) 345 (1971) 15800 495 569 1560 2760 8120 21400 25000 42100 64400
2026-04-29 08:15 12.07 20500 90300 (1947) 345 (1971) 15800 495 569 1560 2760 8120 21400 25000 42100 64400
2026-04-29 07:15 13.23 24500 90300 (1947) 345 (1971) 15800 495 569 1560 2760 8120 21400 25000 42100 64400
2026-04-29 06:15 12.36 21500 90300 (1947) 345 (1971) 15800 495 569 1560 2760 8120 21400 25000 42100 64400
2026-04-29 05:15 12.37 21500 90300 (1947) 345 (1971) 15800 495 569 1560 2760 8120 21400 25000 42100 64400
2026-04-29 04:15 11.43 18400 90300 (1947) 345 (1971) 15800 495 569 1560 2760 8120 21400 25000 42100 64400
2026-04-29 03:15 10.39 15200 90300 (1947) 345 (1971) 15800 495 569 1560 2760 8120 21400 25000 42100 64400
2026-04-29 02:15 10.93 16900 90300 (1947) 345 (1971) 15800 495 569 1560 2760 8120 21400 25000 42100 64400
2026-04-29 01:15 11.65 19100 90300 (1947) 345 (1971) 15800 495 569 1560 2760 8120 21400 25000 42100 64400
2026-04-29 00:15 12.74 22800 90300 (1947) 345 (1971) 15800 495 569 1560 2760 8120 21400 25000 42100 64400
2026-04-28 23:15 14.69 29900 90300 (1947) 345 (1971) 15800 495 569 1560 2760 8120 21400 25000 42100 64400
2026-04-28 22:15 15.00 31000 93800 (1947) 305 (1971) 15800 456 595 1060 1730 9280 23000 28200 35700 63800
2026-04-28 21:15 16.69 36900 93800 (1947) 305 (1971) 15800 456 595 1060 1730 9280 23000 28200 35700 63800
2026-04-28 20:15 16.65 36700 93800 (1947) 305 (1971) 15800 456 595 1060 1730 9280 23000 28200 35700 63800
2026-04-28 19:15 16.69 36900 93800 (1947) 305 (1971) 15800 456 595 1060 1730 9280 23000 28200 35700 63800
2026-04-28 18:15 16.69 36900 93800 (1947) 305 (1971) 15800 456 595 1060 1730 9280 23000 28200 35700 63800
2026-04-28 17:15 16.64 36700 93800 (1947) 305 (1971) 15800 456 595 1060 1730 9280 23000 28200 35700 63800
2026-04-28 16:15 16.66 36800 93800 (1947) 305 (1971) 15800 456 595 1060 1730 9280 23000 28200 35700 63800
2026-04-28 15:15 16.64 36700 93800 (1947) 305 (1971) 15800 456 595 1060 1730 9280 23000 28200 35700 63800
2026-04-28 14:15 16.67 36800 93800 (1947) 305 (1971) 15800 456 595 1060 1730 9280 23000 28200 35700 63800
2026-04-28 13:15 16.62 36600 93800 (1947) 305 (1971) 15800 456 595 1060 1730 9280 23000 28200 35700 63800
2026-04-28 12:15 16.65 36700 93800 (1947) 305 (1971) 15800 456 595 1060 1730 9280 23000 28200 35700 63800
2026-04-28 11:15 16.63 36700 93800 (1947) 305 (1971) 15800 456 595 1060 1730 9280 23000 28200 35700 63800
2026-04-28 10:15 16.63 36700 93800 (1947) 305 (1971) 15800 456 595 1060 1730 9280 23000 28200 35700 63800
2026-04-28 09:15 16.63 36700 93800 (1947) 305 (1971) 15800 456 595 1060 1730 9280 23000 28200 35700 63800
2026-04-28 08:15 16.60 36600 93800 (1947) 305 (1971) 15800 456 595 1060 1730 9280 23000 28200 35700 63800
2026-04-28 07:15 16.59 36500 93800 (1947) 305 (1971) 15800 456 595 1060 1730 9280 23000 28200 35700 63800
2026-04-28 06:15 16.56 36400 93800 (1947) 305 (1971) 15800 456 595 1060 1730 9280 23000 28200 35700 63800
2026-04-28 05:15 16.51 36300 93800 (1947) 305 (1971) 15800 456 595 1060 1730 9280 23000 28200 35700 63800
2026-04-28 04:15 16.41 35900 93800 (1947) 305 (1971) 15800 456 595 1060 1730 9280 23000 28200 35700 63800
2026-04-28 03:15 16.25 35400 93800 (1947) 305 (1971) 15800 456 595 1060 1730 9280 23000 28200 35700 63800
2026-04-28 02:15 16.57 36500 93800 (1947) 305 (1971) 15800 456 595 1060 1730 9280 23000 28200 35700 63800
2026-04-28 01:15 16.54 36400 93800 (1947) 305 (1971) 15800 456 595 1060 1730 9280 23000 28200 35700 63800
2026-04-28 00:15 16.46 36100 93800 (1947) 305 (1971) 15800 456 595 1060 1730 9280 23000 28200 35700 63800
2026-04-27 23:15 16.38 35800 93800 (1947) 305 (1971) 15800 456 595 1060 1730 9280 23000 28200 35700 63800
2026-04-27 22:15 16.34 35700 97000 (1947) 445 (1971) 16600 501 556 1420 2670 9470 24800 27900 35400 65500
2026-04-27 21:15 16.42 36000 97000 (1947) 445 (1971) 16600 501 556 1420 2670 9470 24800 27900 35400 65500
2026-04-27 20:15 16.38 35800 97000 (1947) 445 (1971) 16600 501 556 1420 2670 9470 24800 27900 35400 65500
2026-04-27 19:15 16.39 35900 97000 (1947) 445 (1971) 16600 501 556 1420 2670 9470 24800 27900 35400 65500
2026-04-27 18:15 16.38 35800 97000 (1947) 445 (1971) 16600 501 556 1420 2670 9470 24800 27900 35400 65500
2026-04-27 17:15 16.28 35500 97000 (1947) 445 (1971) 16600 501 556 1420 2670 9470 24800 27900 35400 65500
2026-04-27 16:15 16.35 35700 97000 (1947) 445 (1971) 16600 501 556 1420 2670 9470 24800 27900 35400 65500
2026-04-27 15:15 16.37 35800 97000 (1947) 445 (1971) 16600 501 556 1420 2670 9470 24800 27900 35400 65500
2026-04-27 14:15 16.38 35800 97000 (1947) 445 (1971) 16600 501 556 1420 2670 9470 24800 27900 35400 65500
2026-04-27 13:15 16.39 35900 97000 (1947) 445 (1971) 16600 501 556 1420 2670 9470 24800 27900 35400 65500
2026-04-27 12:15 16.37 35800 97000 (1947) 445 (1971) 16600 501 556 1420 2670 9470 24800 27900 35400 65500
2026-04-27 11:15 16.39 35900 97000 (1947) 445 (1971) 16600 501 556 1420 2670 9470 24800 27900 35400 65500
2026-04-27 10:15 16.39 35900 97000 (1947) 445 (1971) 16600 501 556 1420 2670 9470 24800 27900 35400 65500
2026-04-27 09:15 16.39 35900 97000 (1947) 445 (1971) 16600 501 556 1420 2670 9470 24800 27900 35400 65500
2026-04-27 08:15 16.37 35800 97000 (1947) 445 (1971) 16600 501 556 1420 2670 9470 24800 27900 35400 65500
2026-04-27 07:15 16.23 35400 97000 (1947) 445 (1971) 16600 501 556 1420 2670 9470 24800 27900 35400 65500
2026-04-27 06:15 16.40 35900 97000 (1947) 445 (1971) 16600 501 556 1420 2670 9470 24800 27900 35400 65500
2026-04-27 05:15 16.42 36000 97000 (1947) 445 (1971) 16600 501 556 1420 2670 9470 24800 27900 35400 65500
2026-04-27 04:15 16.44 36000 97000 (1947) 445 (1971) 16600 501 556 1420 2670 9470 24800 27900 35400 65500
2026-04-27 03:15 16.36 35800 97000 (1947) 445 (1971) 16600 501 556 1420 2670 9470 24800 27900 35400 65500
2026-04-27 02:15 16.22 35300 97000 (1947) 445 (1971) 16600 501 556 1420 2670 9470 24800 27900 35400 65500
2026-04-27 01:15 16.02 34700 97000 (1947) 445 (1971) 16600 501 556 1420 2670 9470 24800 27900 35400 65500
2026-04-27 00:15 15.70 33600 97000 (1947) 445 (1971) 16600 501 556 1420 2670 9470 24800 27900 35400 65500
2026-04-26 23:15 15.82 34000 97000 (1947) 445 (1971) 16600 501 556 1420 2670 9470 24800 27900 35400 65500
2026-04-26 22:15 15.63 33400 96600 (1973) 410 (1959) 16800 461 613 1800 3660 10700 22000 26400 35400 64100
2026-04-26 21:15 15.53 33100 96600 (1973) 410 (1959) 16800 461 613 1800 3660 10700 22000 26400 35400 64100
2026-04-26 20:15 15.19 31800 96600 (1973) 410 (1959) 16800 461 613 1800 3660 10700 22000 26400 35400 64100
2026-04-26 19:15 14.90 30700 96600 (1973) 410 (1959) 16800 461 613 1800 3660 10700 22000 26400 35400 64100
2026-04-26 18:15 14.20 28000 96600 (1973) 410 (1959) 16800 461 613 1800 3660 10700 22000 26400 35400 64100
2026-04-26 17:15 13.48 25400 96600 (1973) 410 (1959) 16800 461 613 1800 3660 10700 22000 26400 35400 64100
2026-04-26 16:15 12.82 23000 96600 (1973) 410 (1959) 16800 461 613 1800 3660 10700 22000 26400 35400 64100
2026-04-26 15:15 12.14 20700 96600 (1973) 410 (1959) 16800 461 613 1800 3660 10700 22000 26400 35400 64100
2026-04-26 14:15 11.00 17100 96600 (1973) 410 (1959) 16800 461 613 1800 3660 10700 22000 26400 35400 64100
2026-04-26 13:15 11.75 19500 96600 (1973) 410 (1959) 16800 461 613 1800 3660 10700 22000 26400 35400 64100
2026-04-26 12:15 12.75 22800 96600 (1973) 410 (1959) 16800 461 613 1800 3660 10700 22000 26400 35400 64100
2026-04-26 11:15 14.40 28800 96600 (1973) 410 (1959) 16800 461 613 1800 3660 10700 22000 26400 35400 64100
2026-04-26 10:15 15.96 34500 96600 (1973) 410 (1959) 16800 461 613 1800 3660 10700 22000 26400 35400 64100
2026-04-26 09:15 16.04 34700 96600 (1973) 410 (1959) 16800 461 613 1800 3660 10700 22000 26400 35400 64100
2026-04-26 08:15 15.96 34500 96600 (1973) 410 (1959) 16800 461 613 1800 3660 10700 22000 26400 35400 64100
2026-04-26 07:15 16.00 34600 96600 (1973) 410 (1959) 16800 461 613 1800 3660 10700 22000 26400 35400 64100
2026-04-26 06:15 15.97 34500 96600 (1973) 410 (1959) 16800 461 613 1800 3660 10700 22000 26400 35400 64100
2026-04-26 05:15 15.91 34300 96600 (1973) 410 (1959) 16800 461 613 1800 3660 10700 22000 26400 35400 64100
2026-04-26 04:15 15.83 34100 96600 (1973) 410 (1959) 16800 461 613 1800 3660 10700 22000 26400 35400 64100
2026-04-26 03:15 15.72 33700 96600 (1973) 410 (1959) 16800 461 613 1800 3660 10700 22000 26400 35400 64100
2026-04-26 02:15 15.57 33200 96600 (1973) 410 (1959) 16800 461 613 1800 3660 10700 22000 26400 35400 64100
2026-04-26 01:15 15.29 32200 96600 (1973) 410 (1959) 16800 461 613 1800 3660 10700 22000 26400 35400 64100
2026-04-26 00:15 14.68 29800 96600 (1973) 410 (1959) 16800 461 613 1800 3660 10700 22000 26400 35400 64100
2026-04-25 23:15 15.09 31400 96600 (1973) 410 (1959) 16800 461 613 1800 3660 10700 22000 26400 35400 64100
2026-04-25 22:15 15.63 33400 98400 (1973) 302 (1971) 17200 483 557 1480 2560 11600 28100 30400 35300 63500
2026-04-25 21:15 15.42 32700 98400 (1973) 302 (1971) 17200 483 557 1480 2560 11600 28100 30400 35300 63500
2026-04-25 20:15 15.21 31900 98400 (1973) 302 (1971) 17200 483 557 1480 2560 11600 28100 30400 35300 63500
2026-04-25 19:15 14.85 30500 98400 (1973) 302 (1971) 17200 483 557 1480 2560 11600 28100 30400 35300 63500
2026-04-25 18:15 14.00 27300 98400 (1973) 302 (1971) 17200 483 557 1480 2560 11600 28100 30400 35300 63500
2026-04-25 17:15 13.63 25900 98400 (1973) 302 (1971) 17200 483 557 1480 2560 11600 28100 30400 35300 63500
2026-04-25 16:15 13.83 26600 98400 (1973) 302 (1971) 17200 483 557 1480 2560 11600 28100 30400 35300 63500
2026-04-25 15:15 13.48 25400 98400 (1973) 302 (1971) 17200 483 557 1480 2560 11600 28100 30400 35300 63500
2026-04-25 14:15 13.84 26700 98400 (1973) 302 (1971) 17200 483 557 1480 2560 11600 28100 30400 35300 63500
2026-04-25 13:15 15.35 32400 98400 (1973) 302 (1971) 17200 483 557 1480 2560 11600 28100 30400 35300 63500
2026-04-25 12:15 15.16 31700 98400 (1973) 302 (1971) 17200 483 557 1480 2560 11600 28100 30400 35300 63500
2026-04-25 11:15 14.83 30400 98400 (1973) 302 (1971) 17200 483 557 1480 2560 11600 28100 30400 35300 63500
2026-04-25 10:15 14.36 28600 98400 (1973) 302 (1971) 17200 483 557 1480 2560 11600 28100 30400 35300 63500
2026-04-25 09:15 13.42 25200 98400 (1973) 302 (1971) 17200 483 557 1480 2560 11600 28100 30400 35300 63500
2026-04-25 08:15 12.44 21700 98400 (1973) 302 (1971) 17200 483 557 1480 2560 11600 28100 30400 35300 63500
2026-04-25 07:15 11.70 19300 98400 (1973) 302 (1971) 17200 483 557 1480 2560 11600 28100 30400 35300 63500
2026-04-25 06:15 11.49 18600 98400 (1973) 302 (1971) 17200 483 557 1480 2560 11600 28100 30400 35300 63500
2026-04-25 05:15 11.89 19900 98400 (1973) 302 (1971) 17200 483 557 1480 2560 11600 28100 30400 35300 63500
2026-04-25 04:15 12.73 22700 98400 (1973) 302 (1971) 17200 483 557 1480 2560 11600 28100 30400 35300 63500
2026-04-25 03:15 13.66 26000 98400 (1973) 302 (1971) 17200 483 557 1480 2560 11600 28100 30400 35300 63500
2026-04-25 02:15 14.64 29700 98400 (1973) 302 (1971) 17200 483 557 1480 2560 11600 28100 30400 35300 63500
2026-04-25 01:15 13.83 26600 98400 (1973) 302 (1971) 17200 483 557 1480 2560 11600 28100 30400 35300 63500
2026-04-25 00:15 13.19 24300 98400 (1973) 302 (1971) 17200 483 557 1480 2560 11600 28100 30400 35300 63500
2026-04-24 23:15 13.66 26000 98400 (1973) 302 (1971) 17200 483 557 1480 2560 11600 28100 30400 35300 63500
2026-04-24 22:15 13.61 25800 96700 (1973) 450 (1959) 17500 506 592 1610 1970 14400 24000 30300 34600 62000
2026-04-24 21:15 13.64 25900 96700 (1973) 450 (1959) 17500 506 592 1610 1970 14400 24000 30300 34600 62000
2026-04-24 20:15 13.65 26000 96700 (1973) 450 (1959) 17500 506 592 1610 1970 14400 24000 30300 34600 62000
2026-04-24 19:15 13.66 26000 96700 (1973) 450 (1959) 17500 506 592 1610 1970 14400 24000 30300 34600 62000
2026-04-24 18:15 13.67 26100 96700 (1973) 450 (1959) 17500 506 592 1610 1970 14400 24000 30300 34600 62000
2026-04-24 17:15 13.61 25800 96700 (1973) 450 (1959) 17500 506 592 1610 1970 14400 24000 30300 34600 62000
2026-04-24 16:15 13.58 25700 96700 (1973) 450 (1959) 17500 506 592 1610 1970 14400 24000 30300 34600 62000
2026-04-24 15:15 13.64 25900 96700 (1973) 450 (1959) 17500 506 592 1610 1970 14400 24000 30300 34600 62000
2026-04-24 14:15 13.67 26100 96700 (1973) 450 (1959) 17500 506 592 1610 1970 14400 24000 30300 34600 62000
2026-04-24 13:15 13.70 26200 96700 (1973) 450 (1959) 17500 506 592 1610 1970 14400 24000 30300 34600 62000
2026-04-24 12:15 13.67 26100 96700 (1973) 450 (1959) 17500 506 592 1610 1970 14400 24000 30300 34600 62000
2026-04-24 11:15 13.67 26100 96700 (1973) 450 (1959) 17500 506 592 1610 1970 14400 24000 30300 34600 62000
2026-04-24 10:15 13.72 26200 96700 (1973) 450 (1959) 17500 506 592 1610 1970 14400 24000 30300 34600 62000
2026-04-24 09:15 13.56 25700 96700 (1973) 450 (1959) 17500 506 592 1610 1970 14400 24000 30300 34600 62000
2026-04-24 08:15 13.38 25000 96700 (1973) 450 (1959) 17500 506 592 1610 1970 14400 24000 30300 34600 62000
2026-04-24 07:15 12.93 23400 96700 (1973) 450 (1959) 17500 506 592 1610 1970 14400 24000 30300 34600 62000
2026-04-24 06:15 12.54 22100 96700 (1973) 450 (1959) 17500 506 592 1610 1970 14400 24000 30300 34600 62000
2026-04-24 05:15 13.18 24300 96700 (1973) 450 (1959) 17500 506 592 1610 1970 14400 24000 30300 34600 62000
2026-04-24 04:15 14.30 28400 96700 (1973) 450 (1959) 17500 506 592 1610 1970 14400 24000 30300 34600 62000
2026-04-24 03:15 14.46 29000 96700 (1973) 450 (1959) 17500 506 592 1610 1970 14400 24000 30300 34600 62000
2026-04-24 02:15 14.61 29500 96700 (1973) 450 (1959) 17500 506 592 1610 1970 14400 24000 30300 34600 62000
2026-04-24 01:15 14.72 30000 96700 (1973) 450 (1959) 17500 506 592 1610 1970 14400 24000 30300 34600 62000
2026-04-24 00:15 15.07 31300 96700 (1973) 450 (1959) 17500 506 592 1610 1970 14400 24000 30300 34600 62000
2026-04-23 23:15 15.32 32300 96700 (1973) 450 (1959) 17500 506 592 1610 1970 14400 24000 30300 34600 62000
2026-04-23 22:15 15.35 32400 91600 (1973) 235 (1971) 17600 502 595 2000 3050 13500 26100 30000 35300 55300
2026-04-23 21:15 15.40 32600 91600 (1973) 235 (1971) 17600 502 595 2000 3050 13500 26100 30000 35300 55300
2026-04-23 20:15 15.46 32800 91600 (1973) 235 (1971) 17600 502 595 2000 3050 13500 26100 30000 35300 55300
2026-04-23 19:15 15.51 33000 91600 (1973) 235 (1971) 17600 502 595 2000 3050 13500 26100 30000 35300 55300
2026-04-23 18:15 15.20 31800 91600 (1973) 235 (1971) 17600 502 595 2000 3050 13500 26100 30000 35300 55300
2026-04-23 17:15 15.14 31600 91600 (1973) 235 (1971) 17600 502 595 2000 3050 13500 26100 30000 35300 55300
2026-04-23 16:15 15.07 31300 91600 (1973) 235 (1971) 17600 502 595 2000 3050 13500 26100 30000 35300 55300
2026-04-23 15:15 15.04 31200 91600 (1973) 235 (1971) 17600 502 595 2000 3050 13500 26100 30000 35300 55300
2026-04-23 14:15 15.06 31300 91600 (1973) 235 (1971) 17600 502 595 2000 3050 13500 26100 30000 35300 55300
2026-04-23 13:15 15.11 31500 91600 (1973) 235 (1971) 17600 502 595 2000 3050 13500 26100 30000 35300 55300
2026-04-23 12:15 15.08 31400 91600 (1973) 235 (1971) 17600 502 595 2000 3050 13500 26100 30000 35300 55300
2026-04-23 11:15 14.97 30900 91600 (1973) 235 (1971) 17600 502 595 2000 3050 13500 26100 30000 35300 55300
2026-04-23 10:15 14.98 31000 91600 (1973) 235 (1971) 17600 502 595 2000 3050 13500 26100 30000 35300 55300
2026-04-23 09:15 14.96 30900 91600 (1973) 235 (1971) 17600 502 595 2000 3050 13500 26100 30000 35300 55300
2026-04-23 08:15 14.98 31000 91600 (1973) 235 (1971) 17600 502 595 2000 3050 13500 26100 30000 35300 55300
2026-04-23 07:15 15.25 32000 91600 (1973) 235 (1971) 17600 502 595 2000 3050 13500 26100 30000 35300 55300
2026-04-23 06:15 15.35 32400 91600 (1973) 235 (1971) 17600 502 595 2000 3050 13500 26100 30000 35300 55300
2026-04-23 05:15 15.42 32700 91600 (1973) 235 (1971) 17600 502 595 2000 3050 13500 26100 30000 35300 55300
2026-04-23 04:15 15.41 32600 91600 (1973) 235 (1971) 17600 502 595 2000 3050 13500 26100 30000 35300 55300
2026-04-23 03:15 15.44 32800 91600 (1973) 235 (1971) 17600 502 595 2000 3050 13500 26100 30000 35300 55300
2026-04-23 02:15 15.37 32500 91600 (1973) 235 (1971) 17600 502 595 2000 3050 13500 26100 30000 35300 55300
2026-04-23 01:15 15.50 33000 91600 (1973) 235 (1971) 17600 502 595 2000 3050 13500 26100 30000 35300 55300
2026-04-23 00:15 15.73 33700 91600 (1973) 235 (1971) 17600 502 595 2000 3050 13500 26100 30000 35300 55300
2026-04-22 23:15 15.94 34400 91600 (1973) 235 (1971) 17600 502 595 2000 3050 13500 26100 30000 35300 55300
2026-04-22 22:15 15.93 34400 104000 (1941) 441 (1971) 17300 494 581 1480 3200 11900 26300 30900 37600 49600
2026-04-22 21:15 15.94 34400 104000 (1941) 441 (1971) 17300 494 581 1480 3200 11900 26300 30900 37600 49600
2026-04-22 20:15 15.94 34400 104000 (1941) 441 (1971) 17300 494 581 1480 3200 11900 26300 30900 37600 49600
2026-04-22 19:15 15.95 34400 104000 (1941) 441 (1971) 17300 494 581 1480 3200 11900 26300 30900 37600 49600
2026-04-22 18:15 15.94 34400 104000 (1941) 441 (1971) 17300 494 581 1480 3200 11900 26300 30900 37600 49600
2026-04-22 17:15 15.91 34300 104000 (1941) 441 (1971) 17300 494 581 1480 3200 11900 26300 30900 37600 49600
2026-04-22 16:15 15.92 34300 104000 (1941) 441 (1971) 17300 494 581 1480 3200 11900 26300 30900 37600 49600
2026-04-22 15:15 15.90 34300 104000 (1941) 441 (1971) 17300 494 581 1480 3200 11900 26300 30900 37600 49600
2026-04-22 14:15 15.95 34400 104000 (1941) 441 (1971) 17300 494 581 1480 3200 11900 26300 30900 37600 49600
2026-04-22 13:15 15.96 34500 104000 (1941) 441 (1971) 17300 494 581 1480 3200 11900 26300 30900 37600 49600
2026-04-22 12:15 15.94 34400 104000 (1941) 441 (1971) 17300 494 581 1480 3200 11900 26300 30900 37600 49600
2026-04-22 11:15 15.93 34400 104000 (1941) 441 (1971) 17300 494 581 1480 3200 11900 26300 30900 37600 49600
2026-04-22 10:15 15.94 34400 104000 (1941) 441 (1971) 17300 494 581 1480 3200 11900 26300 30900 37600 49600
2026-04-22 09:15 15.94 34400 104000 (1941) 441 (1971) 17300 494 581 1480 3200 11900 26300 30900 37600 49600
2026-04-22 08:15 15.93 34400 104000 (1941) 441 (1971) 17300 494 581 1480 3200 11900 26300 30900 37600 49600
2026-04-22 07:15 15.89 34300 104000 (1941) 441 (1971) 17300 494 581 1480 3200 11900 26300 30900 37600 49600
2026-04-22 06:15 15.91 34300 104000 (1941) 441 (1971) 17300 494 581 1480 3200 11900 26300 30900 37600 49600
2026-04-22 05:15 15.74 33800 104000 (1941) 441 (1971) 17300 494 581 1480 3200 11900 26300 30900 37600 49600
2026-04-22 04:15 15.94 34400 104000 (1941) 441 (1971) 17300 494 581 1480 3200 11900 26300 30900 37600 49600
2026-04-22 03:15 15.93 34400 104000 (1941) 441 (1971) 17300 494 581 1480 3200 11900 26300 30900 37600 49600
2026-04-22 02:15 15.91 34300 104000 (1941) 441 (1971) 17300 494 581 1480 3200 11900 26300 30900 37600 49600
2026-04-22 01:15 15.90 34300 104000 (1941) 441 (1971) 17300 494 581 1480 3200 11900 26300 30900 37600 49600
2026-04-22 00:15 15.88 34200 104000 (1941) 441 (1971) 17300 494 581 1480 3200 11900 26300 30900 37600 49600
2026-04-21 23:15 15.89 34300 104000 (1941) 441 (1971) 17300 494 581 1480 3200 11900 26300 30900 37600 49600
2026-04-21 22:15 15.87 34200 108000 (1941) 414 (1996) 16800 465 615 1320 2900 9750 27200 31900 34300 55500
2026-04-21 21:15 15.84 34100 108000 (1941) 414 (1996) 16800 465 615 1320 2900 9750 27200 31900 34300 55500
2026-04-21 20:15 15.87 34200 108000 (1941) 414 (1996) 16800 465 615 1320 2900 9750 27200 31900 34300 55500
2026-04-21 19:15 15.81 34000 108000 (1941) 414 (1996) 16800 465 615 1320 2900 9750 27200 31900 34300 55500
2026-04-21 18:15 15.81 34000 108000 (1941) 414 (1996) 16800 465 615 1320 2900 9750 27200 31900 34300 55500
2026-04-21 17:15 15.70 33600 108000 (1941) 414 (1996) 16800 465 615 1320 2900 9750 27200 31900 34300 55500
2026-04-21 16:15 15.82 34000 108000 (1941) 414 (1996) 16800 465 615 1320 2900 9750 27200 31900 34300 55500
2026-04-21 15:15 15.79 33900 108000 (1941) 414 (1996) 16800 465 615 1320 2900 9750 27200 31900 34300 55500
2026-04-21 14:15 15.75 33800 108000 (1941) 414 (1996) 16800 465 615 1320 2900 9750 27200 31900 34300 55500
2026-04-21 13:15 15.73 33700 108000 (1941) 414 (1996) 16800 465 615 1320 2900 9750 27200 31900 34300 55500
2026-04-21 12:15 15.67 33500 108000 (1941) 414 (1996) 16800 465 615 1320 2900 9750 27200 31900 34300 55500
2026-04-21 11:15 15.61 33400 108000 (1941) 414 (1996) 16800 465 615 1320 2900 9750 27200 31900 34300 55500
2026-04-21 10:15 15.50 33000 108000 (1941) 414 (1996) 16800 465 615 1320 2900 9750 27200 31900 34300 55500
2026-04-21 09:15 15.30 32200 108000 (1941) 414 (1996) 16800 465 615 1320 2900 9750 27200 31900 34300 55500
2026-04-21 08:15 13.98 27200 108000 (1941) 414 (1996) 16800 465 615 1320 2900 9750 27200 31900 34300 55500
2026-04-21 07:15 15.82 34000 108000 (1941) 414 (1996) 16800 465 615 1320 2900 9750 27200 31900 34300 55500
2026-04-21 06:15 15.84 34100 108000 (1941) 414 (1996) 16800 465 615 1320 2900 9750 27200 31900 34300 55500
2026-04-21 05:15 15.80 34000 108000 (1941) 414 (1996) 16800 465 615 1320 2900 9750 27200 31900 34300 55500
2026-04-21 04:15 15.82 34000 108000 (1941) 414 (1996) 16800 465 615 1320 2900 9750 27200 31900 34300 55500
2026-04-21 03:15 15.80 34000 108000 (1941) 414 (1996) 16800 465 615 1320 2900 9750 27200 31900 34300 55500
2026-04-21 02:15 15.78 33900 108000 (1941) 414 (1996) 16800 465 615 1320 2900 9750 27200 31900 34300 55500
2026-04-21 01:15 15.75 33800 108000 (1941) 414 (1996) 16800 465 615 1320 2900 9750 27200 31900 34300 55500
2026-04-21 00:15 15.75 33800 108000 (1941) 414 (1996) 16800 465 615 1320 2900 9750 27200 31900 34300 55500
2026-04-20 23:15 15.69 33600 108000 (1941) 414 (1996) 16800 465 615 1320 2900 9750 27200 31900 34300 55500
2026-04-20 22:15 15.66 33500 109000 (1941) 404 (1996) 16900 478 740 2120 3410 10400 25300 30000 34000 52200
2026-04-20 21:15 15.59 33300 109000 (1941) 404 (1996) 16900 478 740 2120 3410 10400 25300 30000 34000 52200
2026-04-20 20:15 15.46 32800 109000 (1941) 404 (1996) 16900 478 740 2120 3410 10400 25300 30000 34000 52200
2026-04-20 19:15 15.28 32100 109000 (1941) 404 (1996) 16900 478 740 2120 3410 10400 25300 30000 34000 52200
2026-04-20 18:15 14.91 30700 109000 (1941) 404 (1996) 16900 478 740 2120 3410 10400 25300 30000 34000 52200
2026-04-20 17:15 14.05 27400 109000 (1941) 404 (1996) 16900 478 740 2120 3410 10400 25300 30000 34000 52200
2026-04-20 16:15 14.92 30700 109000 (1941) 404 (1996) 16900 478 740 2120 3410 10400 25300 30000 34000 52200
2026-04-20 15:15 15.27 32100 109000 (1941) 404 (1996) 16900 478 740 2120 3410 10400 25300 30000 34000 52200
2026-04-20 14:15 15.15 31600 109000 (1941) 404 (1996) 16900 478 740 2120 3410 10400 25300 30000 34000 52200
2026-04-20 13:15 14.90 30700 109000 (1941) 404 (1996) 16900 478 740 2120 3410 10400 25300 30000 34000 52200
2026-04-20 12:15 14.59 29500 109000 (1941) 404 (1996) 16900 478 740 2120 3410 10400 25300 30000 34000 52200
2026-04-20 11:15 14.17 27900 109000 (1941) 404 (1996) 16900 478 740 2120 3410 10400 25300 30000 34000 52200
2026-04-20 10:15 13.44 25200 109000 (1941) 404 (1996) 16900 478 740 2120 3410 10400 25300 30000 34000 52200
2026-04-20 09:15 11.98 20200 109000 (1941) 404 (1996) 16900 478 740 2120 3410 10400 25300 30000 34000 52200
2026-04-20 08:15 9.91 13800 109000 (1941) 404 (1996) 16900 478 740 2120 3410 10400 25300 30000 34000 52200
2026-04-20 07:15 9.57 12800 109000 (1941) 404 (1996) 16900 478 740 2120 3410 10400 25300 30000 34000 52200
2026-04-20 06:15 9.79 13500 109000 (1941) 404 (1996) 16900 478 740 2120 3410 10400 25300 30000 34000 52200
2026-04-20 05:15 9.92 13800 109000 (1941) 404 (1996) 16900 478 740 2120 3410 10400 25300 30000 34000 52200
2026-04-20 04:15 10.29 14900 109000 (1941) 404 (1996) 16900 478 740 2120 3410 10400 25300 30000 34000 52200
2026-04-20 03:15 10.74 16300 109000 (1941) 404 (1996) 16900 478 740 2120 3410 10400 25300 30000 34000 52200
2026-04-20 02:15 11.36 18200 109000 (1941) 404 (1996) 16900 478 740 2120 3410 10400 25300 30000 34000 52200
2026-04-20 01:15 12.31 21300 109000 (1941) 404 (1996) 16900 478 740 2120 3410 10400 25300 30000 34000 52200
2026-04-20 00:15 13.99 27200 109000 (1941) 404 (1996) 16900 478 740 2120 3410 10400 25300 30000 34000 52200
2026-04-19 23:15 15.34 32400 109000 (1941) 404 (1996) 16900 478 740 2120 3410 10400 25300 30000 34000 52200
2026-04-19 22:15 15.28 32100 102000 (1945) 380 (1959) 17100 470 554 1840 3630 11300 26300 29800 34000 52300
2026-04-19 21:15 15.12 31500 102000 (1945) 380 (1959) 17100 470 554 1840 3630 11300 26300 29800 34000 52300
2026-04-19 20:15 14.76 30100 102000 (1945) 380 (1959) 17100 470 554 1840 3630 11300 26300 29800 34000 52300
2026-04-19 19:15 14.19 28000 102000 (1945) 380 (1959) 17100 470 554 1840 3630 11300 26300 29800 34000 52300
2026-04-19 18:15 12.64 22400 102000 (1945) 380 (1959) 17100 470 554 1840 3630 11300 26300 29800 34000 52300
2026-04-19 17:15 13.64 25900 102000 (1945) 380 (1959) 17100 470 554 1840 3630 11300 26300 29800 34000 52300
2026-04-19 16:15 14.09 27600 102000 (1945) 380 (1959) 17100 470 554 1840 3630 11300 26300 29800 34000 52300
2026-04-19 15:15 14.07 27500 102000 (1945) 380 (1959) 17100 470 554 1840 3630 11300 26300 29800 34000 52300
2026-04-19 14:15 13.71 26200 102000 (1945) 380 (1959) 17100 470 554 1840 3630 11300 26300 29800 34000 52300
2026-04-19 13:15 13.80 26500 102000 (1945) 380 (1959) 17100 470 554 1840 3630 11300 26300 29800 34000 52300
2026-04-19 12:15 13.31 24800 102000 (1945) 380 (1959) 17100 470 554 1840 3630 11300 26300 29800 34000 52300
2026-04-19 11:15 13.61 25800 102000 (1945) 380 (1959) 17100 470 554 1840 3630 11300 26300 29800 34000 52300
2026-04-19 10:15 13.16 24200 102000 (1945) 380 (1959) 17100 470 554 1840 3630 11300 26300 29800 34000 52300
2026-04-19 09:15 12.81 23000 102000 (1945) 380 (1959) 17100 470 554 1840 3630 11300 26300 29800 34000 52300
2026-04-19 08:15 14.01 27300 102000 (1945) 380 (1959) 17100 470 554 1840 3630 11300 26300 29800 34000 52300
2026-04-19 07:15 15.94 34400 102000 (1945) 380 (1959) 17100 470 554 1840 3630 11300 26300 29800 34000 52300
2026-04-19 06:15 15.95 34400 102000 (1945) 380 (1959) 17100 470 554 1840 3630 11300 26300 29800 34000 52300
2026-04-19 05:15 15.96 34500 102000 (1945) 380 (1959) 17100 470 554 1840 3630 11300 26300 29800 34000 52300
2026-04-19 04:15 15.95 34400 102000 (1945) 380 (1959) 17100 470 554 1840 3630 11300 26300 29800 34000 52300
2026-04-19 03:15 15.97 34500 102000 (1945) 380 (1959) 17100 470 554 1840 3630 11300 26300 29800 34000 52300
2026-04-19 02:15 15.98 34500 102000 (1945) 380 (1959) 17100 470 554 1840 3630 11300 26300 29800 34000 52300
2026-04-19 01:15 16.00 34600 102000 (1945) 380 (1959) 17100 470 554 1840 3630 11300 26300 29800 34000 52300
2026-04-19 00:15 16.02 34700 102000 (1945) 380 (1959) 17100 470 554 1840 3630 11300 26300 29800 34000 52300
2026-04-18 23:15 16.02 34700 102000 (1945) 380 (1959) 17100 470 554 1840 3630 11300 26300 29800 34000 52300
2026-04-18 22:15 16.01 34600 103000 (1945) 342 (1976) 16600 479 542 1440 2460 13100 28000 30700 38500 52600
2026-04-18 21:15 16.01 34600 103000 (1945) 342 (1976) 16600 479 542 1440 2460 13100 28000 30700 38500 52600
2026-04-18 20:15 16.01 34600 103000 (1945) 342 (1976) 16600 479 542 1440 2460 13100 28000 30700 38500 52600
2026-04-18 19:15 16.01 34600 103000 (1945) 342 (1976) 16600 479 542 1440 2460 13100 28000 30700 38500 52600
2026-04-18 18:15 15.95 34400 103000 (1945) 342 (1976) 16600 479 542 1440 2460 13100 28000 30700 38500 52600
2026-04-18 17:15 15.61 33400 103000 (1945) 342 (1976) 16600 479 542 1440 2460 13100 28000 30700 38500 52600
2026-04-18 16:15 14.91 30700 103000 (1945) 342 (1976) 16600 479 542 1440 2460 13100 28000 30700 38500 52600
2026-04-18 15:15 15.46 32800 103000 (1945) 342 (1976) 16600 479 542 1440 2460 13100 28000 30700 38500 52600
2026-04-18 14:15 15.72 33700 103000 (1945) 342 (1976) 16600 479 542 1440 2460 13100 28000 30700 38500 52600
2026-04-18 13:15 15.38 32500 103000 (1945) 342 (1976) 16600 479 542 1440 2460 13100 28000 30700 38500 52600
2026-04-18 12:15 16.50 36200 103000 (1945) 342 (1976) 16600 479 542 1440 2460 13100 28000 30700 38500 52600
2026-04-18 11:15 16.72 37000 103000 (1945) 342 (1976) 16600 479 542 1440 2460 13100 28000 30700 38500 52600
2026-04-18 10:15 16.92 37600 103000 (1945) 342 (1976) 16600 479 542 1440 2460 13100 28000 30700 38500 52600
2026-04-18 09:15 17.21 38600 103000 (1945) 342 (1976) 16600 479 542 1440 2460 13100 28000 30700 38500 52600
2026-04-18 08:15 17.36 39100 103000 (1945) 342 (1976) 16600 479 542 1440 2460 13100 28000 30700 38500 52600
2026-04-18 07:15 17.41 39300 103000 (1945) 342 (1976) 16600 479 542 1440 2460 13100 28000 30700 38500 52600
2026-04-18 06:15 17.44 39400 103000 (1945) 342 (1976) 16600 479 542 1440 2460 13100 28000 30700 38500 52600
2026-04-18 05:15 17.39 39200 103000 (1945) 342 (1976) 16600 479 542 1440 2460 13100 28000 30700 38500 52600
2026-04-18 04:15 17.20 38600 103000 (1945) 342 (1976) 16600 479 542 1440 2460 13100 28000 30700 38500 52600
2026-04-18 03:15 16.98 37800 103000 (1945) 342 (1976) 16600 479 542 1440 2460 13100 28000 30700 38500 52600
2026-04-18 02:15 16.73 37000 103000 (1945) 342 (1976) 16600 479 542 1440 2460 13100 28000 30700 38500 52600
2026-04-18 01:15 16.53 36300 103000 (1945) 342 (1976) 16600 479 542 1440 2460 13100 28000 30700 38500 52600
2026-04-18 00:15 16.36 35800 103000 (1945) 342 (1976) 16600 479 542 1440 2460 13100 28000 30700 38500 52600
2026-04-17 23:15 16.10 34900 103000 (1945) 342 (1976) 16600 479 542 1440 2460 13100 28000 30700 38500 52600
2026-04-17 22:15 15.69 33600 105000 (1945) 312 (1976) 16200 480 636 1550 1970 10100 28500 31300 34600 49300
2026-04-17 21:15 15.81 34000 105000 (1945) 312 (1976) 16200 480 636 1550 1970 10100 28500 31300 34600 49300
2026-04-17 20:15 15.68 33600 105000 (1945) 312 (1976) 16200 480 636 1550 1970 10100 28500 31300 34600 49300
2026-04-17 19:15 15.58 33300 105000 (1945) 312 (1976) 16200 480 636 1550 1970 10100 28500 31300 34600 49300
2026-04-17 18:15 15.38 32500 105000 (1945) 312 (1976) 16200 480 636 1550 1970 10100 28500 31300 34600 49300
2026-04-17 17:15 15.19 31800 105000 (1945) 312 (1976) 16200 480 636 1550 1970 10100 28500 31300 34600 49300
2026-04-17 16:15 14.41 28800 105000 (1945) 312 (1976) 16200 480 636 1550 1970 10100 28500 31300 34600 49300
2026-04-17 15:15 15.31 32300 105000 (1945) 312 (1976) 16200 480 636 1550 1970 10100 28500 31300 34600 49300
2026-04-17 14:15 14.94 30800 105000 (1945) 312 (1976) 16200 480 636 1550 1970 10100 28500 31300 34600 49300
2026-04-17 13:15 14.32 28500 105000 (1945) 312 (1976) 16200 480 636 1550 1970 10100 28500 31300 34600 49300
2026-04-17 12:15 14.30 28400 105000 (1945) 312 (1976) 16200 480 636 1550 1970 10100 28500 31300 34600 49300
2026-04-17 11:15 14.34 28500 105000 (1945) 312 (1976) 16200 480 636 1550 1970 10100 28500 31300 34600 49300
2026-04-17 10:15 14.33 28500 105000 (1945) 312 (1976) 16200 480 636 1550 1970 10100 28500 31300 34600 49300
2026-04-17 09:15 14.29 28300 105000 (1945) 312 (1976) 16200 480 636 1550 1970 10100 28500 31300 34600 49300
2026-04-17 08:15 14.25 28200 105000 (1945) 312 (1976) 16200 480 636 1550 1970 10100 28500 31300 34600 49300
2026-04-17 07:15 14.21 28000 105000 (1945) 312 (1976) 16200 480 636 1550 1970 10100 28500 31300 34600 49300
2026-04-17 06:15 14.02 27300 105000 (1945) 312 (1976) 16200 480 636 1550 1970 10100 28500 31300 34600 49300
2026-04-17 05:15 13.46 25300 105000 (1945) 312 (1976) 16200 480 636 1550 1970 10100 28500 31300 34600 49300
2026-04-17 04:15 14.69 29900 105000 (1945) 312 (1976) 16200 480 636 1550 1970 10100 28500 31300 34600 49300
2026-04-17 03:15 14.72 30000 105000 (1945) 312 (1976) 16200 480 636 1550 1970 10100 28500 31300 34600 49300
2026-04-17 02:15 14.73 30000 105000 (1945) 312 (1976) 16200 480 636 1550 1970 10100 28500 31300 34600 49300
2026-04-17 01:15 14.77 30200 105000 (1945) 312 (1976) 16200 480 636 1550 1970 10100 28500 31300 34600 49300
2026-04-17 00:15 14.87 30500 105000 (1945) 312 (1976) 16200 480 636 1550 1970 10100 28500 31300 34600 49300
2026-04-16 23:15 14.92 30700 105000 (1945) 312 (1976) 16200 480 636 1550 1970 10100 28500 31300 34600 49300
2026-04-16 22:15 14.88 30600 93900 (1945) 412 (1996) 15900 524 633 1760 2330 9920 26400 30700 34400 49000
2026-04-16 21:15 14.85 30500 93900 (1945) 412 (1996) 15900 524 633 1760 2330 9920 26400 30700 34400 49000
2026-04-16 20:15 14.81 30300 93900 (1945) 412 (1996) 15900 524 633 1760 2330 9920 26400 30700 34400 49000
2026-04-16 19:15 14.77 30200 93900 (1945) 412 (1996) 15900 524 633 1760 2330 9920 26400 30700 34400 49000
2026-04-16 18:15 14.63 29600 93900 (1945) 412 (1996) 15900 524 633 1760 2330 9920 26400 30700 34400 49000
2026-04-16 17:15 14.54 29300 93900 (1945) 412 (1996) 15900 524 633 1760 2330 9920 26400 30700 34400 49000
2026-04-16 16:15 14.37 28600 93900 (1945) 412 (1996) 15900 524 633 1760 2330 9920 26400 30700 34400 49000
2026-04-16 15:15 14.21 28000 93900 (1945) 412 (1996) 15900 524 633 1760 2330 9920 26400 30700 34400 49000
2026-04-16 14:15 13.79 26500 93900 (1945) 412 (1996) 15900 524 633 1760 2330 9920 26400 30700 34400 49000
2026-04-16 13:15 13.14 24200 93900 (1945) 412 (1996) 15900 524 633 1760 2330 9920 26400 30700 34400 49000
2026-04-16 12:15 12.95 23500 93900 (1945) 412 (1996) 15900 524 633 1760 2330 9920 26400 30700 34400 49000
2026-04-16 11:15 12.83 23100 93900 (1945) 412 (1996) 15900 524 633 1760 2330 9920 26400 30700 34400 49000
2026-04-16 10:15 12.56 22200 93900 (1945) 412 (1996) 15900 524 633 1760 2330 9920 26400 30700 34400 49000
2026-04-16 09:15 12.14 20700 93900 (1945) 412 (1996) 15900 524 633 1760 2330 9920 26400 30700 34400 49000
2026-04-16 08:15 11.39 18300 93900 (1945) 412 (1996) 15900 524 633 1760 2330 9920 26400 30700 34400 49000
2026-04-16 07:15 10.32 15000 93900 (1945) 412 (1996) 15900 524 633 1760 2330 9920 26400 30700 34400 49000
2026-04-16 06:15 10.06 14200 93900 (1945) 412 (1996) 15900 524 633 1760 2330 9920 26400 30700 34400 49000
2026-04-16 05:15 9.26 12000 93900 (1945) 412 (1996) 15900 524 633 1760 2330 9920 26400 30700 34400 49000
2026-04-16 04:15 9.20 11800 93900 (1945) 412 (1996) 15900 524 633 1760 2330 9920 26400 30700 34400 49000
2026-04-16 03:15 9.21 11800 93900 (1945) 412 (1996) 15900 524 633 1760 2330 9920 26400 30700 34400 49000
2026-04-16 02:15 9.24 11900 93900 (1945) 412 (1996) 15900 524 633 1760 2330 9920 26400 30700 34400 49000
2026-04-16 01:15 9.71 13200 93900 (1945) 412 (1996) 15900 524 633 1760 2330 9920 26400 30700 34400 49000
2026-04-16 00:15 10.27 14900 93900 (1945) 412 (1996) 15900 524 633 1760 2330 9920 26400 30700 34400 49000
2026-04-15 23:15 10.18 14600 93900 (1945) 412 (1996) 15900 524 633 1760 2330 9920 26400 30700 34400 49000
2026-04-15 22:15 10.58 15800 71200 (1945) 435 (1931) 15200 522 679 2000 3190 8240 24300 29400 34400 46600
2026-04-15 21:15 10.49 15500 71200 (1945) 435 (1931) 15200 522 679 2000 3190 8240 24300 29400 34400 46600
2026-04-15 20:15 10.79 16400 71200 (1945) 435 (1931) 15200 522 679 2000 3190 8240 24300 29400 34400 46600
2026-04-15 19:15 10.57 15800 71200 (1945) 435 (1931) 15200 522 679 2000 3190 8240 24300 29400 34400 46600
2026-04-15 18:15 10.49 15500 71200 (1945) 435 (1931) 15200 522 679 2000 3190 8240 24300 29400 34400 46600
2026-04-15 17:15 9.73 13300 71200 (1945) 435 (1931) 15200 522 679 2000 3190 8240 24300 29400 34400 46600
2026-04-15 16:15 8.20 9720 71200 (1945) 435 (1931) 15200 522 679 2000 3190 8240 24300 29400 34400 46600
2026-04-15 15:15 8.36 10000 71200 (1945) 435 (1931) 15200 522 679 2000 3190 8240 24300 29400 34400 46600
2026-04-15 14:15 8.48 10200 71200 (1945) 435 (1931) 15200 522 679 2000 3190 8240 24300 29400 34400 46600
2026-04-15 13:15 8.52 10300 71200 (1945) 435 (1931) 15200 522 679 2000 3190 8240 24300 29400 34400 46600
2026-04-15 12:15 9.17 11700 71200 (1945) 435 (1931) 15200 522 679 2000 3190 8240 24300 29400 34400 46600
2026-04-15 11:15 8.79 10800 71200 (1945) 435 (1931) 15200 522 679 2000 3190 8240 24300 29400 34400 46600
2026-04-15 10:15 9.82 13500 71200 (1945) 435 (1931) 15200 522 679 2000 3190 8240 24300 29400 34400 46600
2026-04-15 09:15 10.69 16100 71200 (1945) 435 (1931) 15200 522 679 2000 3190 8240 24300 29400 34400 46600
2026-04-15 08:15 10.44 15400 71200 (1945) 435 (1931) 15200 522 679 2000 3190 8240 24300 29400 34400 46600
2026-04-15 07:15 10.02 14100 71200 (1945) 435 (1931) 15200 522 679 2000 3190 8240 24300 29400 34400 46600
2026-04-15 06:15 9.70 13200 71200 (1945) 435 (1931) 15200 522 679 2000 3190 8240 24300 29400 34400 46600
2026-04-15 05:15 9.33 12200 71200 (1945) 435 (1931) 15200 522 679 2000 3190 8240 24300 29400 34400 46600
2026-04-15 04:15 9.48 12600 71200 (1945) 435 (1931) 15200 522 679 2000 3190 8240 24300 29400 34400 46600
2026-04-15 03:15 9.02 11300 71200 (1945) 435 (1931) 15200 522 679 2000 3190 8240 24300 29400 34400 46600
2026-04-15 02:15 9.81 13500 71200 (1945) 435 (1931) 15200 522 679 2000 3190 8240 24300 29400 34400 46600
2026-04-15 01:15 11.23 17800 71200 (1945) 435 (1931) 15200 522 679 2000 3190 8240 24300 29400 34400 46600
2026-04-15 00:15 12.36 21500 71200 (1945) 435 (1931) 15200 522 679 2000 3190 8240 24300 29400 34400 46600
2026-04-14 23:15 12.74 22800 71200 (1945) 435 (1931) 15200 522 679 2000 3190 8240 24300 29400 34400 46600
2026-04-14 22:15 12.16 20800 65200 (1944) 373 (1968) 14800 466 529 1840 3580 9820 24900 28500 34200 47200
2026-04-14 21:15 12.36 21500 65200 (1944) 373 (1968) 14800 466 529 1840 3580 9820 24900 28500 34200 47200
2026-04-14 20:15 12.35 21400 65200 (1944) 373 (1968) 14800 466 529 1840 3580 9820 24900 28500 34200 47200
2026-04-14 19:15 13.07 23900 65200 (1944) 373 (1968) 14800 466 529 1840 3580 9820 24900 28500 34200 47200
2026-04-14 18:15 11.81 19600 65200 (1944) 373 (1968) 14800 466 529 1840 3580 9820 24900 28500 34200 47200
2026-04-14 17:15 11.32 18100 65200 (1944) 373 (1968) 14800 466 529 1840 3580 9820 24900 28500 34200 47200
2026-04-14 16:15 11.09 17300 65200 (1944) 373 (1968) 14800 466 529 1840 3580 9820 24900 28500 34200 47200
2026-04-14 15:15 11.44 18500 65200 (1944) 373 (1968) 14800 466 529 1840 3580 9820 24900 28500 34200 47200
2026-04-14 14:15 11.70 19300 65200 (1944) 373 (1968) 14800 466 529 1840 3580 9820 24900 28500 34200 47200
2026-04-14 13:15 12.31 21300 65200 (1944) 373 (1968) 14800 466 529 1840 3580 9820 24900 28500 34200 47200
2026-04-14 12:15 11.45 18500 65200 (1944) 373 (1968) 14800 466 529 1840 3580 9820 24900 28500 34200 47200
2026-04-14 11:15 12.30 21300 65200 (1944) 373 (1968) 14800 466 529 1840 3580 9820 24900 28500 34200 47200
2026-04-14 10:15 11.89 19900 65200 (1944) 373 (1968) 14800 466 529 1840 3580 9820 24900 28500 34200 47200
2026-04-14 09:15 12.51 22000 65200 (1944) 373 (1968) 14800 466 529 1840 3580 9820 24900 28500 34200 47200
2026-04-14 08:15 10.83 16500 65200 (1944) 373 (1968) 14800 466 529 1840 3580 9820 24900 28500 34200 47200
2026-04-14 07:15 11.92 20000 65200 (1944) 373 (1968) 14800 466 529 1840 3580 9820 24900 28500 34200 47200
2026-04-14 06:15 12.32 21300 65200 (1944) 373 (1968) 14800 466 529 1840 3580 9820 24900 28500 34200 47200
2026-04-14 05:15 11.69 19300 65200 (1944) 373 (1968) 14800 466 529 1840 3580 9820 24900 28500 34200 47200
2026-04-14 04:15 10.89 16700 65200 (1944) 373 (1968) 14800 466 529 1840 3580 9820 24900 28500 34200 47200
2026-04-14 03:15 11.27 17900 65200 (1944) 373 (1968) 14800 466 529 1840 3580 9820 24900 28500 34200 47200
2026-04-14 02:15 11.71 19300 65200 (1944) 373 (1968) 14800 466 529 1840 3580 9820 24900 28500 34200 47200
2026-04-14 01:15 12.27 21200 65200 (1944) 373 (1968) 14800 466 529 1840 3580 9820 24900 28500 34200 47200
2026-04-14 00:15 12.61 22300 65200 (1944) 373 (1968) 14800 466 529 1840 3580 9820 24900 28500 34200 47200
2026-04-13 23:15 12.91 23400 65200 (1944) 373 (1968) 14800 466 529 1840 3580 9820 24900 28500 34200 47200
2026-04-13 22:15 12.77 22900 83100 (1994) 395 (1931) 15000 468 594 2430 3040 9800 23500 27100 34000 47400
2026-04-13 21:15 12.81 23000 83100 (1994) 395 (1931) 15000 468 594 2430 3040 9800 23500 27100 34000 47400
2026-04-13 20:15 13.14 24200 83100 (1994) 395 (1931) 15000 468 594 2430 3040 9800 23500 27100 34000 47400
2026-04-13 19:15 13.38 25000 83100 (1994) 395 (1931) 15000 468 594 2430 3040 9800 23500 27100 34000 47400
2026-04-13 18:15 12.75 22800 83100 (1994) 395 (1931) 15000 468 594 2430 3040 9800 23500 27100 34000 47400
2026-04-13 17:15 13.18 24300 83100 (1994) 395 (1931) 15000 468 594 2430 3040 9800 23500 27100 34000 47400
2026-04-13 16:15 13.43 25200 83100 (1994) 395 (1931) 15000 468 594 2430 3040 9800 23500 27100 34000 47400
2026-04-13 15:15 12.68 22600 83100 (1994) 395 (1931) 15000 468 594 2430 3040 9800 23500 27100 34000 47400
2026-04-13 14:15 11.61 19000 83100 (1994) 395 (1931) 15000 468 594 2430 3040 9800 23500 27100 34000 47400
2026-04-13 13:15 11.26 17900 83100 (1994) 395 (1931) 15000 468 594 2430 3040 9800 23500 27100 34000 47400
2026-04-13 12:15 11.77 19500 83100 (1994) 395 (1931) 15000 468 594 2430 3040 9800 23500 27100 34000 47400
2026-04-13 11:15 11.59 18900 83100 (1994) 395 (1931) 15000 468 594 2430 3040 9800 23500 27100 34000 47400
2026-04-13 10:15 11.30 18000 83100 (1994) 395 (1931) 15000 468 594 2430 3040 9800 23500 27100 34000 47400
2026-04-13 09:15 12.38 21500 83100 (1994) 395 (1931) 15000 468 594 2430 3040 9800 23500 27100 34000 47400
2026-04-13 08:15 11.71 19300 83100 (1994) 395 (1931) 15000 468 594 2430 3040 9800 23500 27100 34000 47400
2026-04-13 07:15 12.46 21800 83100 (1994) 395 (1931) 15000 468 594 2430 3040 9800 23500 27100 34000 47400
2026-04-13 06:15 11.45 18500 83100 (1994) 395 (1931) 15000 468 594 2430 3040 9800 23500 27100 34000 47400
2026-04-13 05:15 10.10 14400 83100 (1994) 395 (1931) 15000 468 594 2430 3040 9800 23500 27100 34000 47400
2026-04-13 04:15 9.45 12500 83100 (1994) 395 (1931) 15000 468 594 2430 3040 9800 23500 27100 34000 47400
2026-04-13 03:15 9.45 12500 83100 (1994) 395 (1931) 15000 468 594 2430 3040 9800 23500 27100 34000 47400
2026-04-13 02:15 9.44 12500 83100 (1994) 395 (1931) 15000 468 594 2430 3040 9800 23500 27100 34000 47400
2026-04-13 01:15 9.46 12500 83100 (1994) 395 (1931) 15000 468 594 2430 3040 9800 23500 27100 34000 47400
2026-04-13 00:15 9.46 12500 83100 (1994) 395 (1931) 15000 468 594 2430 3040 9800 23500 27100 34000 47400
2026-04-12 23:15 9.46 12500 83100 (1994) 395 (1931) 15000 468 594 2430 3040 9800 23500 27100 34000 47400
2026-04-12 22:15 9.48 12600 108000 (1994) 395 (1931) 15200 510 608 1600 3030 10200 21700 28000 34000 48400
2026-04-12 21:15 9.49 12600 108000 (1994) 395 (1931) 15200 510 608 1600 3030 10200 21700 28000 34000 48400
2026-04-12 20:15 9.50 12600 108000 (1994) 395 (1931) 15200 510 608 1600 3030 10200 21700 28000 34000 48400
2026-04-12 19:15 9.49 12600 108000 (1994) 395 (1931) 15200 510 608 1600 3030 10200 21700 28000 34000 48400
2026-04-12 18:15 9.53 12700 108000 (1994) 395 (1931) 15200 510 608 1600 3030 10200 21700 28000 34000 48400
2026-04-12 17:15 9.51 12700 108000 (1994) 395 (1931) 15200 510 608 1600 3030 10200 21700 28000 34000 48400
2026-04-12 16:15 9.49 12600 108000 (1994) 395 (1931) 15200 510 608 1600 3030 10200 21700 28000 34000 48400
2026-04-12 15:15 9.53 12700 108000 (1994) 395 (1931) 15200 510 608 1600 3030 10200 21700 28000 34000 48400
2026-04-12 14:15 9.61 12900 108000 (1994) 395 (1931) 15200 510 608 1600 3030 10200 21700 28000 34000 48400
2026-04-12 13:15 9.66 13100 108000 (1994) 395 (1931) 15200 510 608 1600 3030 10200 21700 28000 34000 48400
2026-04-12 12:15 9.71 13200 108000 (1994) 395 (1931) 15200 510 608 1600 3030 10200 21700 28000 34000 48400
2026-04-12 11:15 9.93 13900 108000 (1994) 395 (1931) 15200 510 608 1600 3030 10200 21700 28000 34000 48400
2026-04-12 10:15 10.16 14500 108000 (1994) 395 (1931) 15200 510 608 1600 3030 10200 21700 28000 34000 48400
2026-04-12 09:15 10.55 15700 108000 (1994) 395 (1931) 15200 510 608 1600 3030 10200 21700 28000 34000 48400
2026-04-12 08:15 10.92 16800 108000 (1994) 395 (1931) 15200 510 608 1600 3030 10200 21700 28000 34000 48400
2026-04-12 07:15 11.00 17100 108000 (1994) 395 (1931) 15200 510 608 1600 3030 10200 21700 28000 34000 48400
2026-04-12 06:15 10.90 16800 108000 (1994) 395 (1931) 15200 510 608 1600 3030 10200 21700 28000 34000 48400
2026-04-12 05:15 10.91 16800 108000 (1994) 395 (1931) 15200 510 608 1600 3030 10200 21700 28000 34000 48400
2026-04-12 04:15 10.91 16800 108000 (1994) 395 (1931) 15200 510 608 1600 3030 10200 21700 28000 34000 48400
2026-04-12 03:15 10.89 16700 108000 (1994) 395 (1931) 15200 510 608 1600 3030 10200 21700 28000 34000 48400
2026-04-12 02:15 10.89 16700 108000 (1994) 395 (1931) 15200 510 608 1600 3030 10200 21700 28000 34000 48400
2026-04-12 01:15 10.87 16700 108000 (1994) 395 (1931) 15200 510 608 1600 3030 10200 21700 28000 34000 48400
2026-04-12 00:15 10.82 16500 108000 (1994) 395 (1931) 15200 510 608 1600 3030 10200 21700 28000 34000 48400
2026-04-11 23:15 10.88 16700 108000 (1994) 395 (1931) 15200 510 608 1600 3030 10200 21700 28000 34000 48400
2026-04-11 22:15 10.87 16700 65900 (1994) 374 (1971) 14400 486 511 1340 1910 9000 22000 28300 34200 49600
2026-04-11 21:15 10.87 16700 65900 (1994) 374 (1971) 14400 486 511 1340 1910 9000 22000 28300 34200 49600
2026-04-11 20:15 10.84 16600 65900 (1994) 374 (1971) 14400 486 511 1340 1910 9000 22000 28300 34200 49600
2026-04-11 19:15 10.81 16500 65900 (1994) 374 (1971) 14400 486 511 1340 1910 9000 22000 28300 34200 49600
2026-04-11 18:15 10.71 16200 65900 (1994) 374 (1971) 14400 486 511 1340 1910 9000 22000 28300 34200 49600
2026-04-11 17:15 10.72 16200 65900 (1994) 374 (1971) 14400 486 511 1340 1910 9000 22000 28300 34200 49600
2026-04-11 16:15 10.68 16100 65900 (1994) 374 (1971) 14400 486 511 1340 1910 9000 22000 28300 34200 49600
2026-04-11 15:15 10.65 16000 65900 (1994) 374 (1971) 14400 486 511 1340 1910 9000 22000 28300 34200 49600
2026-04-11 14:15 10.60 15800 65900 (1994) 374 (1971) 14400 486 511 1340 1910 9000 22000 28300 34200 49600
2026-04-11 13:15 10.57 15800 65900 (1994) 374 (1971) 14400 486 511 1340 1910 9000 22000 28300 34200 49600
2026-04-11 12:15 10.38 15200 65900 (1994) 374 (1971) 14400 486 511 1340 1910 9000 22000 28300 34200 49600
2026-04-11 11:15 10.23 14700 65900 (1994) 374 (1971) 14400 486 511 1340 1910 9000 22000 28300 34200 49600
2026-04-11 10:15 9.87 13700 65900 (1994) 374 (1971) 14400 486 511 1340 1910 9000 22000 28300 34200 49600
2026-04-11 09:15 9.42 12400 65900 (1994) 374 (1971) 14400 486 511 1340 1910 9000 22000 28300 34200 49600
2026-04-11 08:15 8.10 9540 65900 (1994) 374 (1971) 14400 486 511 1340 1910 9000 22000 28300 34200 49600
2026-04-11 07:15 8.04 9440 65900 (1994) 374 (1971) 14400 486 511 1340 1910 9000 22000 28300 34200 49600
2026-04-11 06:15 8.14 9610 65900 (1994) 374 (1971) 14400 486 511 1340 1910 9000 22000 28300 34200 49600
2026-04-11 05:15 8.28 9860 65900 (1994) 374 (1971) 14400 486 511 1340 1910 9000 22000 28300 34200 49600
2026-04-11 04:15 8.46 10200 65900 (1994) 374 (1971) 14400 486 511 1340 1910 9000 22000 28300 34200 49600
2026-04-11 03:15 8.73 10700 65900 (1994) 374 (1971) 14400 486 511 1340 1910 9000 22000 28300 34200 49600
2026-04-11 02:15 9.13 11600 65900 (1994) 374 (1971) 14400 486 511 1340 1910 9000 22000 28300 34200 49600
2026-04-11 01:15 9.74 13300 65900 (1994) 374 (1971) 14400 486 511 1340 1910 9000 22000 28300 34200 49600
2026-04-11 00:15 10.82 16500 65900 (1994) 374 (1971) 14400 486 511 1340 1910 9000 22000 28300 34200 49600
2026-04-10 23:15 12.06 20500 65900 (1994) 374 (1971) 14400 486 511 1340 1910 9000 22000 28300 34200 49600
2026-04-10 22:15 11.64 19100 51500 (1973) 297 (1971) 13300 480 608 1880 3210 7610 21700 27800 33700 41700
2026-04-10 21:15 10.61 15900 51500 (1973) 297 (1971) 13300 480 608 1880 3210 7610 21700 27800 33700 41700
2026-04-10 20:15 9.77 13400 51500 (1973) 297 (1971) 13300 480 608 1880 3210 7610 21700 27800 33700 41700
2026-04-10 19:15 9.62 13000 51500 (1973) 297 (1971) 13300 480 608 1880 3210 7610 21700 27800 33700 41700
2026-04-10 18:15 8.12 9580 51500 (1973) 297 (1971) 13300 480 608 1880 3210 7610 21700 27800 33700 41700
2026-04-10 17:15 8.23 9770 51500 (1973) 297 (1971) 13300 480 608 1880 3210 7610 21700 27800 33700 41700
2026-04-10 16:15 8.10 9540 51500 (1973) 297 (1971) 13300 480 608 1880 3210 7610 21700 27800 33700 41700
2026-04-10 15:15 8.29 9880 51500 (1973) 297 (1971) 13300 480 608 1880 3210 7610 21700 27800 33700 41700
2026-04-10 14:15 8.46 10200 51500 (1973) 297 (1971) 13300 480 608 1880 3210 7610 21700 27800 33700 41700
2026-04-10 13:15 8.73 10700 51500 (1973) 297 (1971) 13300 480 608 1880 3210 7610 21700 27800 33700 41700
2026-04-10 12:15 9.07 11400 51500 (1973) 297 (1971) 13300 480 608 1880 3210 7610 21700 27800 33700 41700
2026-04-10 11:15 9.66 13100 51500 (1973) 297 (1971) 13300 480 608 1880 3210 7610 21700 27800 33700 41700
2026-04-10 10:15 10.58 15800 51500 (1973) 297 (1971) 13300 480 608 1880 3210 7610 21700 27800 33700 41700
2026-04-10 09:15 11.02 17100 51500 (1973) 297 (1971) 13300 480 608 1880 3210 7610 21700 27800 33700 41700
2026-04-10 08:15 11.24 17800 51500 (1973) 297 (1971) 13300 480 608 1880 3210 7610 21700 27800 33700 41700
2026-04-10 07:15 12.69 22600 51500 (1973) 297 (1971) 13300 480 608 1880 3210 7610 21700 27800 33700 41700
2026-04-10 06:15 11.92 20000 51500 (1973) 297 (1971) 13300 480 608 1880 3210 7610 21700 27800 33700 41700
2026-04-10 05:15 10.43 15300 51500 (1973) 297 (1971) 13300 480 608 1880 3210 7610 21700 27800 33700 41700
2026-04-10 04:15 9.93 13900 51500 (1973) 297 (1971) 13300 480 608 1880 3210 7610 21700 27800 33700 41700
2026-04-10 03:15 10.29 14900 51500 (1973) 297 (1971) 13300 480 608 1880 3210 7610 21700 27800 33700 41700
2026-04-10 02:15 11.11 17400 51500 (1973) 297 (1971) 13300 480 608 1880 3210 7610 21700 27800 33700 41700
2026-04-10 01:15 12.32 21300 51500 (1973) 297 (1971) 13300 480 608 1880 3210 7610 21700 27800 33700 41700
2026-04-10 00:15 14.57 29400 51500 (1973) 297 (1971) 13300 480 608 1880 3210 7610 21700 27800 33700 41700
2026-04-09 23:15 16.05 34800 51500 (1973) 297 (1971) 13300 480 608 1880 3210 7610 21700 27800 33700 41700

A total of 730 rows are displayed for years 1931 through 2019.